Observation data for Van Horn on 10/31/2020      Previous  Date  Next       Current Mesonet Observations  Soil Data  Daily Summary Page  Observations in Plain Language
KVA1 310500Z 23006KT 09/M03 A302 RMK A01 T00891033  RH  042%=      5-min Rain = 0
KVA1 310501Z 21005KT 09/M03 A302 RMK A01 T00891033  RH  042%=      5-min Rain = 0
KVA1 310502Z 22005KT 09/M03 A302 RMK A01 T00901033  RH  042%=      5-min Rain = 0
KVA1 310503Z 23005KT 09/M03 A302 RMK A01 T00911033  RH  042%=      5-min Rain = 0
KVA1 310504Z 24004KT 09/M03 A3019 RMK A01 T00911033  RH  041%=      5-min Rain = 0
KVA1 310505Z 22005KT 09/M03 A3019 RMK A01 T00911034  RH  041%=      5-min Rain = 0
KVA1 310506Z 21005KT 09/M04 A3019 RMK A01 T00901035  RH  041%=      5-min Rain = 0
KVA1 310507Z 21005KT 09/M03 A3019 RMK A01 T00901034  RH  041%=      5-min Rain = 0
KVA1 310508Z 22005KT 09/M03 A3019 RMK A01 T00901034  RH  041%=      5-min Rain = 0
KVA1 310509Z 23004KT 09/M03 A3019 RMK A01 T00911033  RH  042%=      5-min Rain = 0
KVA1 310510Z 25004KT 09/M03 A3019 RMK A01 T00921033  RH  041%=      5-min Rain = 0
KVA1 310511Z 25005KT 09/M03 A3019 RMK A01 T00921034  RH  041%=      5-min Rain = 0
KVA1 310512Z 24005KT 09/M04 A3019 RMK A01 T00911035  RH  041%=      5-min Rain = 0
KVA1 310513Z 24005KT 09/M04 A3019 RMK A01 T00891036  RH  041%=      5-min Rain = 0
KVA1 310514Z 24005KT 09/M04 A3019 RMK A01 T00881036  RH  041%=      5-min Rain = 0
KVA1 310515Z 24005KT 09/M04 A3019 RMK A01 T00881036  RH  042%=      5-min Rain = 0
KVA1 310516Z 24006KT 09/M04 A3019 RMK A01 T00871036  RH  042%=      5-min Rain = 0
KVA1 310517Z 24006KT 09/M04 A3019 RMK A01 T00871035  RH  042%=      5-min Rain = 0
KVA1 310518Z 23006KT 09/M04 A3019 RMK A01 T00881035  RH  042%=      5-min Rain = 0
KVA1 310519Z 24006KT 09/M04 A3019 RMK A01 T00881035  RH  042%=      5-min Rain = 0
KVA1 310520Z 24006KT 09/M03 A3019 RMK A01 T00881034  RH  042%=      5-min Rain = 0
KVA1 310521Z 23006KT 09/M03 A3019 RMK A01 T00891034  RH  042%=      5-min Rain = 0
KVA1 310522Z 23006KT 09/M03 A3019 RMK A01 T00891033  RH  042%=      5-min Rain = 0
KVA1 310523Z 24007KT 09/M03 A3019 RMK A01 T00911033  RH  042%=      5-min Rain = 0
KVA1 310524Z 24007KT 09/M03 A3019 RMK A01 T00921032  RH  042%=      5-min Rain = 0
KVA1 310525Z 23007KT 09/M03 A3019 RMK A01 T00941030  RH  042%=      5-min Rain = 0
KVA1 310526Z 23007KT 10/M03 A3019 RMK A01 T00951030  RH  041%=      5-min Rain = 0
KVA1 310527Z 23007KT 10/M03 A3019 RMK A01 T00981028  RH  041%=      5-min Rain = 0
KVA1 310528Z 23008KT 10/M03 A3019 RMK A01 T01011027  RH  041%=      5-min Rain = 0
KVA1 310529Z 23008KT 11/M03 A3019 RMK A01 T01051026  RH  040%=      5-min Rain = 0
KVA1 310530Z 24007KT 11/M03 A3019 RMK A01 T01071027  RH  039%=      5-min Rain = 0
KVA1 310531Z 23007KT 11/M03 A3019 RMK A01 T01071028  RH  039%=      5-min Rain = 0
KVA1 310532Z 23008KT 11/M03 A3019 RMK A01 T01081028  RH  039%=      5-min Rain = 0
KVA1 310533Z 23008KT 11/M03 A3019 RMK A01 T01081028  RH  038%=      5-min Rain = 0
KVA1 310534Z 24007KT 11/M03 A3019 RMK A01 T01091028  RH  038%=      5-min Rain = 0
KVA1 310535Z 23008KT 11/M03 A3019 RMK A01 T01101028  RH  038%=      5-min Rain = 0
KVA1 310536Z 23008KT 11/M03 A3019 RMK A01 T01101029  RH  038%=      5-min Rain = 0
KVA1 310537Z 23007KT 11/M03 A3019 RMK A01 T01111029  RH  038%=      5-min Rain = 0
KVA1 310538Z 22007KT 11/M03 A3019 RMK A01 T01111029  RH  038%=      5-min Rain = 0
KVA1 310539Z 22007KT 11/M03 A3019 RMK A01 T01121028  RH  037%=      5-min Rain = 0
KVA1 310540Z 22008KT 11/M03 A3019 RMK A01 T01121029  RH  037%=      5-min Rain = 0
KVA1 310541Z 22008KT 11/M03 A3019 RMK A01 T01121029  RH  037%=      5-min Rain = 0
KVA1 310542Z 22007KT 11/M03 A3019 RMK A01 T01121029  RH  037%=      5-min Rain = 0
KVA1 310543Z 23007KT 11/M03 A3019 RMK A01 T01121030  RH  037%=      5-min Rain = 0
KVA1 310544Z 23008KT 11/M03 A3019 RMK A01 T01121029  RH  037%=      5-min Rain = 0
KVA1 310545Z 22007KT 11/M03 A3019 RMK A01 T01131029  RH  037%=      5-min Rain = 0
KVA1 310546Z 22007KT 11/M03 A3019 RMK A01 T01131030  RH  037%=      5-min Rain = 0
KVA1 310547Z 22007KT 11/M03 A3019 RMK A01 T01131030  RH  037%=      5-min Rain = 0
KVA1 310548Z 23006KT 11/M03 A3019 RMK A01 T01131030  RH  037%=      5-min Rain = 0
KVA1 310549Z 23007KT 11/M03 A3019 RMK A01 T01121030  RH  037%=      5-min Rain = 0
KVA1 310550Z 23006KT 11/M03 A3019 RMK A01 T01121030  RH  037%=      5-min Rain = 0
KVA1 310551Z 22006KT 11/M03 A3019 RMK A01 T01121030  RH  037%=      5-min Rain = 0
KVA1 310552Z 22006KT 11/M03 A3019 RMK A01 T01111031  RH  037%=      5-min Rain = 0
KVA1 310553Z 22006KT 11/M03 A3019 RMK A01 T01111031  RH  037%=      5-min Rain = 0
KVA1 310554Z 22006KT 11/M03 A3019 RMK A01 T01111031  RH  037%=      5-min Rain = 0
KVA1 310555Z 22006KT 11/M03 A3019 RMK A01 T01101031  RH  037%=      5-min Rain = 0
KVA1 310556Z 22006KT 11/M03 A3019 RMK A01 T01101031  RH  037%=      5-min Rain = 0
KVA1 310557Z 22006KT 11/M03 A3019 RMK A01 T01091031  RH  037%=      5-min Rain = 0
KVA1 310558Z 22006KT 11/M03 A3019 RMK A01 T01091031  RH  037%=      5-min Rain = 0
KVA1 310559Z 22006KT 11/M03 A3019 RMK A01 T01081032  RH  037%=      5-min Rain = 0
KVA1 310600Z 22007KT 11/M03 A3019 RMK A01 T01071032  RH  038%=      5-min Rain = 0
KVA1 310601Z 23006KT 11/M03 A3019 RMK A01 T01071031  RH  038%=      5-min Rain = 0
KVA1 310602Z 23006KT 11/M03 A3019 RMK A01 T01071031  RH  038%=      5-min Rain = 0
KVA1 310603Z 23006KT 11/M03 A3019 RMK A01 T01061031  RH  038%=      5-min Rain = 0
KVA1 310604Z 23006KT 11/M03 A3019 RMK A01 T01061031  RH  038%=      5-min Rain = 0
KVA1 310605Z 23006KT 11/M03 A3019 RMK A01 T01051031  RH  038%=      5-min Rain = 0
KVA1 310606Z 23006KT 11/M03 A3019 RMK A01 T01051031  RH  038%=      5-min Rain = 0
KVA1 310607Z 23007KT 10/M03 A3019 RMK A01 T01041031  RH  038%=      5-min Rain = 0
KVA1 310608Z 23007KT 10/M03 A3019 RMK A01 T01041031  RH  039%=      5-min Rain = 0
KVA1 310609Z 23006KT 10/M03 A3019 RMK A01 T01041031  RH  039%=      5-min Rain = 0
KVA1 310610Z 22007KT 10/M03 A3019 RMK A01 T01041031  RH  039%=      5-min Rain = 0
KVA1 310611Z 23007KT 10/M03 A3018 RMK A01 T01041031  RH  039%=      5-min Rain = 0
KVA1 310612Z 22007KT 10/M03 A3018 RMK A01 T01041031  RH  039%=      5-min Rain = 0
KVA1 310613Z 22007KT 10/M03 A3018 RMK A01 T01031032  RH  039%=      5-min Rain = 0
KVA1 310614Z 22007KT 10/M03 A3018 RMK A01 T01031031  RH  039%=      5-min Rain = 0
KVA1 310615Z 22007KT 10/M03 A3018 RMK A01 T01041031  RH  039%=      5-min Rain = 0
KVA1 310616Z 22007KT 10/M03 A3018 RMK A01 T01031031  RH  039%=      5-min Rain = 0
KVA1 310617Z 22007KT 10/M03 A3018 RMK A01 T01031031  RH  039%=      5-min Rain = 0
KVA1 310618Z 22007KT 10/M03 A3018 RMK A01 T01031031  RH  039%=      5-min Rain = 0
KVA1 310619Z 22007KT 10/M03 A3018 RMK A01 T01031031  RH  039%=      5-min Rain = 0
KVA1 310620Z 22008KT 10/M03 A3018 RMK A01 T01031031  RH  039%=      5-min Rain = 0
KVA1 310621Z 22007KT 10/M03 A3018 RMK A01 T01031031  RH  039%=      5-min Rain = 0
KVA1 310622Z 22008KT 10/M03 A3018 RMK A01 T01031031  RH  039%=      5-min Rain = 0
KVA1 310623Z 22007KT 10/M03 A3018 RMK A01 T01031031  RH  039%=      5-min Rain = 0
KVA1 310624Z 22007KT 10/M03 A3018 RMK A01 T01031030  RH  039%=      5-min Rain = 0
KVA1 310625Z 22007KT 10/M03 A3018 RMK A01 T01041030  RH  039%=      5-min Rain = 0
KVA1 310626Z 22007KT 10/M03 A3018 RMK A01 T01041030  RH  039%=      5-min Rain = 0
KVA1 310627Z 22007KT 10/M03 A3018 RMK A01 T01041030  RH  039%=      5-min Rain = 0
KVA1 310628Z 22008KT 10/M03 A3018 RMK A01 T01041030  RH  039%=      5-min Rain = 0
KVA1 310629Z 22008KT 10/M03 A3018 RMK A01 T01041030  RH  039%=      5-min Rain = 0
KVA1 310630Z 22008KT 11/M03 A3018 RMK A01 T01051030  RH  039%=      5-min Rain = 0
KVA1 310631Z 22008KT 11/M03 A3018 RMK A01 T01051030  RH  039%=      5-min Rain = 0
KVA1 310632Z 22008KT 11/M03 A3018 RMK A01 T01051030  RH  039%=      5-min Rain = 0
KVA1 310633Z 22008KT 11/M03 A3018 RMK A01 T01051030  RH  039%=      5-min Rain = 0
KVA1 310634Z 22007KT 11/M03 A3018 RMK A01 T01051030  RH  039%=      5-min Rain = 0
KVA1 310635Z 22007KT 10/M03 A3018 RMK A01 T01041030  RH  039%=      5-min Rain = 0
KVA1 310636Z 22006KT 10/M03 A3018 RMK A01 T01041030  RH  039%=      5-min Rain = 0
KVA1 310637Z 22007KT 10/M03 A3018 RMK A01 T01031030  RH  039%=      5-min Rain = 0
KVA1 310638Z 22006KT 10/M03 A3018 RMK A01 T01031031  RH  039%=      5-min Rain = 0
KVA1 310639Z 22007KT 10/M03 A3018 RMK A01 T01021030  RH  039%=      5-min Rain = 0
KVA1 310640Z 23006KT 10/M03 A3018 RMK A01 T01021031  RH  039%=      5-min Rain = 0
KVA1 310641Z 23006KT 10/M03 A3018 RMK A01 T01021031  RH  039%=      5-min Rain = 0
KVA1 310642Z 22006KT 10/M03 A3018 RMK A01 T01011031  RH  039%=      5-min Rain = 0
KVA1 310643Z 23006KT 10/M03 A3018 RMK A01 T01001031  RH  039%=      5-min Rain = 0
KVA1 310644Z 22005KT 10/M03 A3018 RMK A01 T01001031  RH  040%=      5-min Rain = 0
KVA1 310645Z 23006KT 10/M03 A3018 RMK A01 T00991032  RH  040%=      5-min Rain = 0
KVA1 310646Z 23006KT 10/M03 A3018 RMK A01 T00991032  RH  040%=      5-min Rain = 0
KVA1 310647Z 23005KT 10/M03 A3018 RMK A01 T00981032  RH  040%=      5-min Rain = 0
KVA1 310648Z 23006KT 10/M03 A3018 RMK A01 T00971032  RH  040%=      5-min Rain = 0
KVA1 310649Z 23006KT 10/M03 A3018 RMK A01 T00971032  RH  040%=      5-min Rain = 0
KVA1 310650Z 23006KT 10/M03 A3018 RMK A01 T00961032  RH  040%=      5-min Rain = 0
KVA1 310651Z 23006KT 10/M03 A3018 RMK A01 T00961032  RH  040%=      5-min Rain = 0
KVA1 310652Z 23006KT 10/M03 A3018 RMK A01 T00961032  RH  040%=      5-min Rain = 0
KVA1 310653Z 22006KT 10/M03 A3018 RMK A01 T00961032  RH  041%=      5-min Rain = 0
KVA1 310654Z 23005KT 10/M03 A3018 RMK A01 T00961032  RH  041%=      5-min Rain = 0
KVA1 310655Z 24006KT 10/M03 A3018 RMK A01 T00961032  RH  041%=      5-min Rain = 0
KVA1 310656Z 24007KT 10/M03 A3018 RMK A01 T00951032  RH  041%=      5-min Rain = 0
KVA1 310657Z 23006KT 10/M03 A3018 RMK A01 T00951032  RH  041%=      5-min Rain = 0
KVA1 310658Z 23006KT 09/M03 A3018 RMK A01 T00941033  RH  041%=      5-min Rain = 0
KVA1 310659Z 23007KT 09/M03 A3018 RMK A01 T00941032  RH  041%=      5-min Rain = 0
KVA1 310700Z 23007KT 09/M03 A3018 RMK A01 T00941032  RH  041%=      5-min Rain = 0
KVA1 310701Z 23007KT 09/M03 A3018 RMK A01 T00941032  RH  041%=      5-min Rain = 0
KVA1 310702Z 23007KT 09/M03 A3018 RMK A01 T00941032  RH  041%=      5-min Rain = 0
KVA1 310703Z 23007KT 09/M03 A3018 RMK A01 T00941032  RH  041%=      5-min Rain = 0
KVA1 310704Z 23007KT 09/M03 A3018 RMK A01 T00941032  RH  041%=      5-min Rain = 0
KVA1 310705Z 23008KT 09/M03 A3018 RMK A01 T00941031  RH  041%=      5-min Rain = 0
KVA1 310706Z 23007KT 10/M03 A3018 RMK A01 T00951031  RH  041%=      5-min Rain = 0
KVA1 310707Z 22007KT 10/M03 A3018 RMK A01 T00951031  RH  041%=      5-min Rain = 0
KVA1 310708Z 22008KT 10/M03 A3018 RMK A01 T00951031  RH  041%=      5-min Rain = 0
KVA1 310709Z 22008KT 10/M03 A3018 RMK A01 T00951031  RH  041%=      5-min Rain = 0
KVA1 310710Z 22008KT 10/M03 A3017 RMK A01 T00951031  RH  041%=      5-min Rain = 0
KVA1 310711Z 22007KT 10/M03 A3017 RMK A01 T00951031  RH  041%=      5-min Rain = 0
KVA1 310712Z 22007KT 10/M03 A3017 RMK A01 T00951031  RH  041%=      5-min Rain = 0
KVA1 310713Z 22007KT 10/M03 A3017 RMK A01 T00951031  RH  041%=      5-min Rain = 0
KVA1 310714Z 22007KT 10/M03 A3017 RMK A01 T00951031  RH  041%=      5-min Rain = 0
KVA1 310715Z 22007KT 10/M03 A3017 RMK A01 T00951031  RH  041%=      5-min Rain = 0
KVA1 310716Z 23008KT 10/M03 A3017 RMK A01 T00951031  RH  041%=      5-min Rain = 0
KVA1 310717Z 22007KT 09/M03 A3017 RMK A01 T00941032  RH  041%=      5-min Rain = 0
KVA1 310718Z 22008KT 09/M03 A3017 RMK A01 T00931032  RH  041%=      5-min Rain = 0
KVA1 310719Z 22007KT 09/M03 A3017 RMK A01 T00931032  RH  041%=      5-min Rain = 0
KVA1 310720Z 22007KT 09/M03 A3017 RMK A01 T00931032  RH  041%=      5-min Rain = 0
KVA1 310721Z 22008KT 09/M03 A3017 RMK A01 T00921032  RH  042%=      5-min Rain = 0
KVA1 310722Z 22008KT 09/M03 A3017 RMK A01 T00921032  RH  042%=      5-min Rain = 0
KVA1 310723Z 22008KT 09/M03 A3017 RMK A01 T00921031  RH  042%=      5-min Rain = 0
KVA1 310724Z 22008KT 09/M03 A3017 RMK A01 T00931031  RH  042%=      5-min Rain = 0
KVA1 310725Z 22007KT 09/M03 A3017 RMK A01 T00921032  RH  042%=      5-min Rain = 0
KVA1 310726Z 22007KT 09/M03 A3017 RMK A01 T00921031  RH  042%=      5-min Rain = 0
KVA1 310727Z 22007KT 09/M03 A3017 RMK A01 T00921031  RH  042%=      5-min Rain = 0
KVA1 310728Z 22007KT 09/M03 A3017 RMK A01 T00921031  RH  042%=      5-min Rain = 0
KVA1 310729Z 22008KT 09/M03 A3017 RMK A01 T00911032  RH  042%=      5-min Rain = 0
KVA1 310730Z 22008KT 09/M03 A3017 RMK A01 T00911031  RH  042%=      5-min Rain = 0
KVA1 310731Z 22008KT 09/M03 A3017 RMK A01 T00911031  RH  042%=      5-min Rain = 0
KVA1 310732Z 22008KT 09/M03 A3017 RMK A01 T00911031  RH  042%=      5-min Rain = 0
KVA1 310733Z 22009KT 09/M03 A3017 RMK A01 T00911031  RH  042%=      5-min Rain = 0
KVA1 310734Z 22009KT 09/M03 A3017 RMK A01 T00911031  RH  042%=      5-min Rain = 0
KVA1 310735Z 22008KT 09/M03 A3017 RMK A01 T00911031  RH  042%=      5-min Rain = 0
KVA1 310736Z 22008KT 09/M03 A3017 RMK A01 T00911031  RH  042%=      5-min Rain = 0
KVA1 310737Z 22008KT 09/M03 A3017 RMK A01 T00911031  RH  042%=      5-min Rain = 0
KVA1 310738Z 22008KT 09/M03 A3017 RMK A01 T00911031  RH  042%=      5-min Rain = 0
KVA1 310739Z 22009KT 09/M03 A3017 RMK A01 T00921031  RH  042%=      5-min Rain = 0
KVA1 310740Z 22008KT 09/M03 A3017 RMK A01 T00921031  RH  042%=      5-min Rain = 0
KVA1 310741Z 22009KT 09/M03 A3017 RMK A01 T00921030  RH  042%=      5-min Rain = 0
KVA1 310742Z 22009KT 09/M03 A3017 RMK A01 T00931030  RH  042%=      5-min Rain = 0
KVA1 310743Z 22008KT 09/M03 A3017 RMK A01 T00931030  RH  042%=      5-min Rain = 0
KVA1 310744Z 22009KT 09/M03 A3017 RMK A01 T00931030  RH  042%=      5-min Rain = 0
KVA1 310745Z 22010KT 09/M03 A3017 RMK A01 T00941029  RH  042%=      5-min Rain = 0
KVA1 310746Z 22010KT 10/M03 A3017 RMK A01 T00951029  RH  042%=      5-min Rain = 0
KVA1 310747Z 22011KT 10/M03 A3017 RMK A01 T00951029  RH  042%=      5-min Rain = 0
KVA1 310748Z 22010KT 10/M03 A3017 RMK A01 T00971028  RH  042%=      5-min Rain = 0
KVA1 310749Z 22011KT 10/M03 A3017 RMK A01 T00971028  RH  041%=      5-min Rain = 0
KVA1 310750Z 22009KT 10/M03 A3017 RMK A01 T00981028  RH  041%=      5-min Rain = 0
KVA1 310751Z 21011KT 10/M03 A3017 RMK A01 T00981027  RH  041%=      5-min Rain = 0
KVA1 310752Z 22009KT 10/M03 A3017 RMK A01 T00991027  RH  041%=      5-min Rain = 0
KVA1 310753Z 22008KT 10/M03 A3017 RMK A01 T00991027  RH  041%=      5-min Rain = 0
KVA1 310754Z 22009KT 10/M03 A3017 RMK A01 T01001028  RH  041%=      5-min Rain = 0
KVA1 310755Z 22008KT 10/M03 A3017 RMK A01 T00991028  RH  041%=      5-min Rain = 0
KVA1 310756Z 22008KT 10/M03 A3017 RMK A01 T00991028  RH  041%=      5-min Rain = 0
KVA1 310757Z 22008KT 10/M03 A3017 RMK A01 T00981029  RH  041%=      5-min Rain = 0
KVA1 310758Z 22008KT 10/M03 A3017 RMK A01 T00961029  RH  041%=      5-min Rain = 0
KVA1 310759Z 22008KT 10/M03 A3017 RMK A01 T00961029  RH  041%=      5-min Rain = 0
KVA1 310800Z 22009KT 10/M03 A3017 RMK A01 T00961029  RH  042%=      5-min Rain = 0
KVA1 310801Z 22008KT 10/M03 A3017 RMK A01 T00951029  RH  042%=      5-min Rain = 0
KVA1 310802Z 22008KT 09/M03 A3017 RMK A01 T00941029  RH  042%=      5-min Rain = 0
KVA1 310803Z 22008KT 09/M03 A3017 RMK A01 T00941029  RH  042%=      5-min Rain = 0
KVA1 310804Z 22008KT 09/M03 A3017 RMK A01 T00941029  RH  042%=      5-min Rain = 0
KVA1 310805Z 22009KT 09/M03 A3017 RMK A01 T00941029  RH  042%=      5-min Rain = 0
KVA1 310806Z 22009KT 09/M03 A3017 RMK A01 T00941029  RH  042%=      5-min Rain = 0
KVA1 310807Z 22008KT 09/M03 A3017 RMK A01 T00941028  RH  042%=      5-min Rain = 0
KVA1 310808Z 21008KT 09/M03 A3017 RMK A01 T00941028  RH  042%=      5-min Rain = 0
KVA1 310809Z 22008KT 09/M03 A3017 RMK A01 T00941028  RH  042%=      5-min Rain = 0
KVA1 310810Z 22008KT 09/M03 A3017 RMK A01 T00941028  RH  042%=      5-min Rain = 0
KVA1 310811Z 22008KT 09/M03 A3017 RMK A01 T00941028  RH  042%=      5-min Rain = 0
KVA1 310812Z 23007KT 09/M03 A3017 RMK A01 T00941028  RH  042%=      5-min Rain = 0
KVA1 310813Z 22007KT 09/M03 A3017 RMK A01 T00941029  RH  042%=      5-min Rain = 0
KVA1 310814Z 23007KT 09/M03 A3017 RMK A01 T00931029  RH  042%=      5-min Rain = 0
KVA1 310815Z 23008KT 09/M03 A3017 RMK A01 T00921030  RH  042%=      5-min Rain = 0
KVA1 310816Z 23008KT 09/M03 A3017 RMK A01 T00911029  RH  043%=      5-min Rain = 0
KVA1 310817Z 22008KT 09/M03 A3017 RMK A01 T00911029  RH  043%=      5-min Rain = 0
KVA1 310818Z 22008KT 09/M03 A3017 RMK A01 T00911029  RH  043%=      5-min Rain = 0
KVA1 310819Z 23008KT 09/M03 A3017 RMK A01 T00921028  RH  043%=      5-min Rain = 0
KVA1 310820Z 23008KT 09/M03 A3017 RMK A01 T00911029  RH  043%=      5-min Rain = 0
KVA1 310821Z 23008KT 09/M03 A3017 RMK A01 T00911029  RH  043%=      5-min Rain = 0
KVA1 310822Z 23008KT 09/M03 A3017 RMK A01 T00911029  RH  043%=      5-min Rain = 0
KVA1 310823Z 23008KT 09/M03 A3017 RMK A01 T00901029  RH  043%=      5-min Rain = 0
KVA1 310824Z 23007KT 09/M03 A3017 RMK A01 T00901029  RH  043%=      5-min Rain = 0
KVA1 310825Z 23008KT 09/M03 A3017 RMK A01 T00891029  RH  043%=      5-min Rain = 0
KVA1 310826Z 23007KT 09/M03 A3017 RMK A01 T00901029  RH  043%=      5-min Rain = 0
KVA1 310827Z 23008KT 09/M03 A3017 RMK A01 T00901029  RH  043%=      5-min Rain = 0
KVA1 310828Z 23007KT 09/M03 A3017 RMK A01 T00901029  RH  043%=      5-min Rain = 0
KVA1 310829Z 23008KT 09/M03 A3017 RMK A01 T00901029  RH  043%=      5-min Rain = 0
KVA1 310830Z 23008KT 09/M03 A3017 RMK A01 T00891029  RH  043%=      5-min Rain = 0
KVA1 310831Z 23007KT 09/M03 A3017 RMK A01 T00891028  RH  043%=      5-min Rain = 0
KVA1 310832Z 23008KT 09/M03 A3017 RMK A01 T00891029  RH  043%=      5-min Rain = 0
KVA1 310833Z 23007KT 09/M03 A3017 RMK A01 T00891029  RH  043%=      5-min Rain = 0
KVA1 310834Z 23008KT 09/M03 A3017 RMK A01 T00891029  RH  043%=      5-min Rain = 0
KVA1 310835Z 23008KT 09/M03 A3017 RMK A01 T00891028  RH  043%=      5-min Rain = 0
KVA1 310836Z 23008KT 09/M03 A3017 RMK A01 T00891028  RH  043%=      5-min Rain = 0
KVA1 310837Z 22008KT 09/M03 A3017 RMK A01 T00891028  RH  043%=      5-min Rain = 0
KVA1 310838Z 23007KT 09/M03 A3017 RMK A01 T00901028  RH  043%=      5-min Rain = 0
KVA1 310839Z 23008KT 09/M03 A3017 RMK A01 T00911028  RH  043%=      5-min Rain = 0
KVA1 310840Z 23008KT 09/M03 A3017 RMK A01 T00901029  RH  043%=      5-min Rain = 0
KVA1 310841Z 23008KT 09/M03 A3017 RMK A01 T00901029  RH  043%=      5-min Rain = 0
KVA1 310842Z 23008KT 09/M03 A3017 RMK A01 T00901028  RH  043%=      5-min Rain = 0
KVA1 310843Z 23008KT 09/M03 A3017 RMK A01 T00901028  RH  043%=      5-min Rain = 0
KVA1 310844Z 23008KT 09/M03 A3017 RMK A01 T00901028  RH  043%=      5-min Rain = 0
KVA1 310845Z 23008KT 09/M03 A3017 RMK A01 T00901028  RH  043%=      5-min Rain = 0
KVA1 310846Z 23008KT 09/M03 A3017 RMK A01 T00901028  RH  043%=      5-min Rain = 0
KVA1 310847Z 23007KT 09/M03 A3017 RMK A01 T00901028  RH  043%=      5-min Rain = 0
KVA1 310848Z 23008KT 09/M03 A3017 RMK A01 T00891029  RH  043%=      5-min Rain = 0
KVA1 310849Z 23008KT 09/M03 A3017 RMK A01 T00891029  RH  043%=      5-min Rain = 0
KVA1 310850Z 23009KT 09/M03 A3017 RMK A01 T00891029  RH  043%=      5-min Rain = 0
KVA1 310851Z 23008KT 09/M03 A3017 RMK A01 T00891029  RH  044%=      5-min Rain = 0
KVA1 310852Z 22009KT 09/M03 A3017 RMK A01 T00891029  RH  044%=      5-min Rain = 0
KVA1 310853Z 22008KT 09/M03 A3017 RMK A01 T00891028  RH  044%=      5-min Rain = 0
KVA1 310854Z 23008KT 09/M03 A3017 RMK A01 T00891028  RH  044%=      5-min Rain = 0
KVA1 310855Z 22009KT 09/M03 A3017 RMK A01 T00891028  RH  044%=      5-min Rain = 0
KVA1 310856Z 22009KT 09/M03 A3017 RMK A01 T00891028  RH  044%=      5-min Rain = 0
KVA1 310857Z 23008KT 09/M03 A3017 RMK A01 T00901028  RH  044%=      5-min Rain = 0
KVA1 310858Z 22008KT 09/M03 A3017 RMK A01 T00901028  RH  043%=      5-min Rain = 0
KVA1 310859Z 23008KT 09/M03 A3016 RMK A01 T00901027  RH  044%=      5-min Rain = 0
KVA1 310900Z 23007KT 09/M03 A3016 RMK A01 T00901028  RH  044%=      5-min Rain = 0
KVA1 310901Z 22008KT 09/M03 A3016 RMK A01 T00901028  RH  043%=      5-min Rain = 0
KVA1 310902Z 23008KT 09/M03 A3016 RMK A01 T00891028  RH  044%=      5-min Rain = 0
KVA1 310903Z 23008KT 09/M03 A3016 RMK A01 T00901027  RH  044%=      5-min Rain = 0
KVA1 310904Z 22009KT 09/M03 A3016 RMK A01 T00901027  RH  044%=      5-min Rain = 0
KVA1 310905Z 22009KT 09/M03 A3016 RMK A01 T00901027  RH  044%=      5-min Rain = 0
KVA1 310906Z 22008KT 09/M03 A3016 RMK A01 T00901027  RH  043%=      5-min Rain = 0
KVA1 310907Z 23008KT 09/M03 A3016 RMK A01 T00911027  RH  044%=      5-min Rain = 0
KVA1 310908Z 23008KT 09/M03 A3016 RMK A01 T00921027  RH  043%=      5-min Rain = 0
KVA1 310909Z 23008KT 09/M03 A3016 RMK A01 T00911027  RH  043%=      5-min Rain = 0
KVA1 310910Z 23007KT 09/M03 A3016 RMK A01 T00901028  RH  043%=      5-min Rain = 0
KVA1 310911Z 23008KT 09/M03 A3016 RMK A01 T00891028  RH  043%=      5-min Rain = 0
KVA1 310912Z 22009KT 09/M03 A3016 RMK A01 T00891028  RH  044%=      5-min Rain = 0
KVA1 310913Z 23009KT 09/M03 A3016 RMK A01 T00891028  RH  044%=      5-min Rain = 0
KVA1 310914Z 23008KT 09/M03 A3016 RMK A01 T00891027  RH  044%=      5-min Rain = 0
KVA1 310915Z 23008KT 09/M03 A3016 RMK A01 T00891027  RH  044%=      5-min Rain = 0
KVA1 310916Z 23008KT 09/M03 A3016 RMK A01 T00891027  RH  044%=      5-min Rain = 0
KVA1 310917Z 23008KT 09/M03 A3016 RMK A01 T00891027  RH  044%=      5-min Rain = 0
KVA1 310918Z 23008KT 09/M03 A3016 RMK A01 T00891027  RH  044%=      5-min Rain = 0
KVA1 310919Z 24008KT 09/M03 A3016 RMK A01 T00891028  RH  044%=      5-min Rain = 0
KVA1 310920Z 23007KT 09/M03 A3016 RMK A01 T00891027  RH  044%=      5-min Rain = 0
KVA1 310921Z 23007KT 09/M03 A3016 RMK A01 T00881028  RH  044%=      5-min Rain = 0
KVA1 310922Z 23007KT 09/M03 A3016 RMK A01 T00881027  RH  044%=      5-min Rain = 0
KVA1 310923Z 24007KT 09/M03 A3016 RMK A01 T00881027  RH  044%=      5-min Rain = 0
KVA1 310924Z 23008KT 09/M03 A3016 RMK A01 T00881027  RH  044%=      5-min Rain = 0
KVA1 310925Z 24008KT 09/M03 A3016 RMK A01 T00881027  RH  044%=      5-min Rain = 0
KVA1 310926Z 23008KT 09/M03 A3016 RMK A01 T00881027  RH  044%=      5-min Rain = 0
KVA1 310927Z 24008KT 09/M03 A3016 RMK A01 T00881027  RH  044%=      5-min Rain = 0
KVA1 310928Z 23008KT 09/M03 A3016 RMK A01 T00881027  RH  044%=      5-min Rain = 0
KVA1 310929Z 23007KT 09/M03 A3016 RMK A01 T00881027  RH  044%=      5-min Rain = 0
KVA1 310930Z 24008KT 09/M03 A3016 RMK A01 T00881027  RH  044%=      5-min Rain = 0
KVA1 310931Z 24007KT 09/M03 A3016 RMK A01 T00881027  RH  044%=      5-min Rain = 0
KVA1 310932Z 23007KT 09/M03 A3016 RMK A01 T00891027  RH  044%=      5-min Rain = 0
KVA1 310933Z 24008KT 09/M03 A3016 RMK A01 T00881027  RH  044%=      5-min Rain = 0
KVA1 310934Z 23008KT 09/M03 A3016 RMK A01 T00881026  RH  044%=      5-min Rain = 0
KVA1 310935Z 23006KT 09/M03 A3016 RMK A01 T00881026  RH  045%=      5-min Rain = 0
KVA1 310936Z 23008KT 09/M03 A3016 RMK A01 T00891026  RH  044%=      5-min Rain = 0
KVA1 310937Z 23007KT 09/M03 A3016 RMK A01 T00891026  RH  044%=      5-min Rain = 0
KVA1 310938Z 23007KT 09/M03 A3016 RMK A01 T00891026  RH  044%=      5-min Rain = 0
KVA1 310939Z 23007KT 09/M03 A3016 RMK A01 T00891026  RH  044%=      5-min Rain = 0
KVA1 310940Z 23007KT 09/M03 A3016 RMK A01 T00891026  RH  044%=      5-min Rain = 0
KVA1 310941Z 23007KT 09/M03 A3016 RMK A01 T00891026  RH  044%=      5-min Rain = 0
KVA1 310942Z 23007KT 09/M03 A3016 RMK A01 T00891026  RH  044%=      5-min Rain = 0
KVA1 310943Z 23008KT 09/M03 A3016 RMK A01 T00891026  RH  044%=      5-min Rain = 0
KVA1 310944Z 23008KT 09/M03 A3016 RMK A01 T00891025  RH  044%=      5-min Rain = 0
KVA1 310945Z 23007KT 09/M03 A3016 RMK A01 T00901025  RH  044%=      5-min Rain = 0
KVA1 310946Z 23008KT 09/M03 A3016 RMK A01 T00901025  RH  044%=      5-min Rain = 0
KVA1 310947Z 23008KT 09/M03 A3016 RMK A01 T00901025  RH  044%=      5-min Rain = 0
KVA1 310948Z 23007KT 09/M03 A3016 RMK A01 T00901025  RH  044%=      5-min Rain = 0
KVA1 310949Z 23007KT 09/M03 A3017 RMK A01 T00901025  RH  044%=      5-min Rain = 0
KVA1 310950Z 23008KT 09/M03 A3017 RMK A01 T00901025  RH  044%=      5-min Rain = 0
KVA1 310951Z 22008KT 09/M03 A3017 RMK A01 T00901025  RH  044%=      5-min Rain = 0
KVA1 310952Z 23008KT 09/M02 A3017 RMK A01 T00901024  RH  044%=      5-min Rain = 0
KVA1 310953Z 23008KT 09/M03 A3017 RMK A01 T00911025  RH  044%=      5-min Rain = 0
KVA1 310954Z 23008KT 09/M03 A3017 RMK A01 T00901025  RH  044%=      5-min Rain = 0
KVA1 310955Z 22008KT 09/M03 A3017 RMK A01 T00911025  RH  044%=      5-min Rain = 0
KVA1 310956Z 22008KT 09/M03 A3017 RMK A01 T00901025  RH  044%=      5-min Rain = 0
KVA1 310957Z 23008KT 09/M02 A3017 RMK A01 T00901024  RH  044%=      5-min Rain = 0
KVA1 310958Z 23008KT 09/M02 A3017 RMK A01 T00901024  RH  044%=      5-min Rain = 0
KVA1 310959Z 22008KT 09/M02 A3017 RMK A01 T00901024  RH  044%=      5-min Rain = 0
KVA1 311000Z 22008KT 09/M02 A3017 RMK A01 T00901024  RH  044%=      5-min Rain = 0
KVA1 311001Z 23008KT 09/M02 A3017 RMK A01 T00911024  RH  044%=      5-min Rain = 0
KVA1 311002Z 23008KT 09/M02 A3017 RMK A01 T00901024  RH  044%=      5-min Rain = 0
KVA1 311003Z 23009KT 09/M02 A3017 RMK A01 T00911024  RH  044%=      5-min Rain = 0
KVA1 311004Z 23008KT 09/M02 A3017 RMK A01 T00901024  RH  045%=      5-min Rain = 0
KVA1 311005Z 22008KT 09/M02 A3016 RMK A01 T00911024  RH  044%=      5-min Rain = 0
KVA1 311006Z 22008KT 09/M02 A3016 RMK A01 T00911024  RH  044%=      5-min Rain = 0
KVA1 311007Z 23009KT 09/M02 A3016 RMK A01 T00911024  RH  044%=      5-min Rain = 0
KVA1 311008Z 23009KT 09/M02 A3017 RMK A01 T00911024  RH  044%=      5-min Rain = 0
KVA1 311009Z 23008KT 09/M02 A3017 RMK A01 T00911024  RH  044%=      5-min Rain = 0
KVA1 311010Z 23008KT 09/M02 A3017 RMK A01 T00911024  RH  044%=      5-min Rain = 0
KVA1 311011Z 23008KT 09/M02 A3017 RMK A01 T00911024  RH  045%=      5-min Rain = 0
KVA1 311012Z 23008KT 09/M02 A3017 RMK A01 T00901024  RH  045%=      5-min Rain = 0
KVA1 311013Z 23008KT 09/M02 A3017 RMK A01 T00901024  RH  045%=      5-min Rain = 0
KVA1 311014Z 23008KT 09/M02 A3017 RMK A01 T00911023  RH  045%=      5-min Rain = 0
KVA1 311015Z 23007KT 09/M02 A3017 RMK A01 T00911024  RH  044%=      5-min Rain = 0
KVA1 311016Z 23008KT 09/M02 A3017 RMK A01 T00911023  RH  045%=      5-min Rain = 0
KVA1 311017Z 23008KT 09/M02 A3017 RMK A01 T00911023  RH  045%=      5-min Rain = 0
KVA1 311018Z 23008KT 09/M02 A3017 RMK A01 T00911024  RH  045%=      5-min Rain = 0
KVA1 311019Z 23007KT 09/M02 A3017 RMK A01 T00911024  RH  045%=      5-min Rain = 0
KVA1 311020Z 23007KT 09/M02 A3017 RMK A01 T00911024  RH  045%=      5-min Rain = 0
KVA1 311021Z 23008KT 09/M02 A3017 RMK A01 T00901024  RH  045%=      5-min Rain = 0
KVA1 311022Z 23009KT 09/M02 A3017 RMK A01 T00901024  RH  045%=      5-min Rain = 0
KVA1 311023Z 23008KT 09/M02 A3017 RMK A01 T00901023  RH  045%=      5-min Rain = 0
KVA1 311024Z 23008KT 09/M02 A3017 RMK A01 T00901024  RH  045%=      5-min Rain = 0
KVA1 311025Z 23008KT 09/M02 A3017 RMK A01 T00901023  RH  045%=      5-min Rain = 0
KVA1 311026Z 22008KT 09/M02 A3017 RMK A01 T00901023  RH  045%=      5-min Rain = 0
KVA1 311027Z 22008KT 09/M02 A3017 RMK A01 T00901024  RH  045%=      5-min Rain = 0
KVA1 311028Z 22008KT 09/M02 A3017 RMK A01 T00901024  RH  045%=      5-min Rain = 0
KVA1 311029Z 22008KT 09/M02 A3017 RMK A01 T00901024  RH  045%=      5-min Rain = 0
KVA1 311030Z 22008KT 09/M02 A3017 RMK A01 T00901024  RH  045%=      5-min Rain = 0
KVA1 311031Z 22008KT 09/M02 A3017 RMK A01 T00911023  RH  045%=      5-min Rain = 0
KVA1 311032Z 22007KT 09/M02 A3017 RMK A01 T00911024  RH  045%=      5-min Rain = 0
KVA1 311033Z 22007KT 09/M02 A3017 RMK A01 T00911023  RH  045%=      5-min Rain = 0
KVA1 311034Z 21006KT 09/M02 A3017 RMK A01 T00911023  RH  045%=      5-min Rain = 0
KVA1 311035Z 22006KT 09/M02 A3017 RMK A01 T00901023  RH  045%=      5-min Rain = 0
KVA1 311036Z 22007KT 09/M02 A3017 RMK A01 T00901023  RH  045%=      5-min Rain = 0
KVA1 311037Z 21006KT 09/M02 A3017 RMK A01 T00901023  RH  045%=      5-min Rain = 0
KVA1 311038Z 21005KT 09/M02 A3017 RMK A01 T00901024  RH  045%=      5-min Rain = 0
KVA1 311039Z 21005KT 09/M02 A3017 RMK A01 T00891023  RH  045%=      5-min Rain = 0
KVA1 311040Z 21006KT 09/M02 A3017 RMK A01 T00891024  RH  045%=      5-min Rain = 0
KVA1 311041Z 21006KT 09/M02 A3017 RMK A01 T00891023  RH  045%=      5-min Rain = 0
KVA1 311042Z 21005KT 09/M02 A3018 RMK A01 T00881024  RH  045%=      5-min Rain = 0
KVA1 311043Z 21006KT 09/M02 A3018 RMK A01 T00881024  RH  045%=      5-min Rain = 0
KVA1 311044Z 21005KT 09/M02 A3018 RMK A01 T00881024  RH  046%=      5-min Rain = 0
KVA1 311045Z 21005KT 09/M02 A3018 RMK A01 T00871024  RH  046%=      5-min Rain = 0
KVA1 311046Z 21005KT 09/M02 A3018 RMK A01 T00871024  RH  046%=      5-min Rain = 0
KVA1 311047Z 21005KT 09/M02 A3018 RMK A01 T00861024  RH  046%=      5-min Rain = 0
KVA1 311048Z 21005KT 09/M02 A3018 RMK A01 T00861024  RH  046%=      5-min Rain = 0
KVA1 311049Z 21005KT 09/M02 A3018 RMK A01 T00851024  RH  046%=      5-min Rain = 0
KVA1 311050Z 21005KT 09/M02 A3018 RMK A01 T00851024  RH  046%=      5-min Rain = 0
KVA1 311051Z 21005KT 09/M02 A3018 RMK A01 T00851024  RH  046%=      5-min Rain = 0
KVA1 311052Z 21005KT 09/M02 A3018 RMK A01 T00851024  RH  046%=      5-min Rain = 0
KVA1 311053Z 22005KT 09/M02 A3018 RMK A01 T00851024  RH  046%=      5-min Rain = 0
KVA1 311054Z 22005KT 08/M02 A3018 RMK A01 T00841024  RH  046%=      5-min Rain = 0
KVA1 311055Z 22006KT 08/M02 A3018 RMK A01 T00841024  RH  047%=      5-min Rain = 0
KVA1 311056Z 22006KT 09/M02 A3018 RMK A01 T00851023  RH  047%=      5-min Rain = 0
KVA1 311057Z 22006KT 09/M02 A3018 RMK A01 T00851023  RH  047%=      5-min Rain = 0
KVA1 311058Z 22007KT 09/M02 A3018 RMK A01 T00851023  RH  046%=      5-min Rain = 0
KVA1 311059Z 21007KT 09/M02 A3018 RMK A01 T00861023  RH  046%=      5-min Rain = 0
KVA1 311100Z 22006KT 09/M02 A3018 RMK A01 T00861023  RH  046%=      5-min Rain = 0
KVA1 311101Z 22007KT 09/M02 A3018 RMK A01 T00871023  RH  046%=      5-min Rain = 0
KVA1 311102Z 21007KT 09/M02 A3018 RMK A01 T00871022  RH  046%=      5-min Rain = 0
KVA1 311103Z 21007KT 09/M02 A3018 RMK A01 T00881021  RH  046%=      5-min Rain = 0
KVA1 311104Z 21007KT 09/M02 A3018 RMK A01 T00891021  RH  046%=      5-min Rain = 0
KVA1 311105Z 21007KT 09/M02 A3018 RMK A01 T00901021  RH  046%=      5-min Rain = 0
KVA1 311106Z 21007KT 09/M02 A3018 RMK A01 T00901021  RH  046%=      5-min Rain = 0
KVA1 311107Z 21007KT 09/M02 A3018 RMK A01 T00901021  RH  046%=      5-min Rain = 0
KVA1 311108Z 21006KT 09/M02 A3018 RMK A01 T00901021  RH  046%=      5-min Rain = 0
KVA1 311109Z 22007KT 09/M02 A3018 RMK A01 T00901021  RH  045%=      5-min Rain = 0
KVA1 311110Z 22007KT 09/M02 A3018 RMK A01 T00911021  RH  046%=      5-min Rain = 0
KVA1 311111Z 22008KT 09/M02 A3018 RMK A01 T00911021  RH  046%=      5-min Rain = 0
KVA1 311112Z 22007KT 09/M02 A3018 RMK A01 T00911020  RH  046%=      5-min Rain = 0
KVA1 311113Z 22007KT 09/M02 A3018 RMK A01 T00921020  RH  045%=      5-min Rain = 0
KVA1 311114Z 22008KT 09/M02 A3018 RMK A01 T00931020  RH  045%=      5-min Rain = 0
KVA1 311115Z 22008KT 09/M02 A3018 RMK A01 T00941019  RH  045%=      5-min Rain = 0
KVA1 311116Z 22008KT 09/M02 A3018 RMK A01 T00941019  RH  045%=      5-min Rain = 0
KVA1 311117Z 22008KT 09/M02 A3018 RMK A01 T00941019  RH  045%=      5-min Rain = 0
KVA1 311118Z 21008KT 10/M02 A3018 RMK A01 T00951019  RH  045%=      5-min Rain = 0
KVA1 311119Z 21008KT 10/M02 A3018 RMK A01 T00951019  RH  045%=      5-min Rain = 0
KVA1 311120Z 21009KT 10/M02 A3018 RMK A01 T00951020  RH  045%=      5-min Rain = 0
KVA1 311121Z 21009KT 10/M02 A3018 RMK A01 T00951019  RH  045%=      5-min Rain = 0
KVA1 311122Z 21009KT 10/M02 A3018 RMK A01 T00951019  RH  045%=      5-min Rain = 0
KVA1 311123Z 22008KT 10/M02 A3018 RMK A01 T00951019  RH  045%=      5-min Rain = 0
KVA1 311124Z 22008KT 10/M02 A3018 RMK A01 T00951020  RH  044%=      5-min Rain = 0
KVA1 311125Z 22008KT 09/M02 A3018 RMK A01 T00941021  RH  044%=      5-min Rain = 0
KVA1 311126Z 22008KT 09/M02 A3018 RMK A01 T00921022  RH  045%=      5-min Rain = 0
KVA1 311127Z 22008KT 09/M02 A3018 RMK A01 T00911022  RH  045%=      5-min Rain = 0
KVA1 311128Z 21007KT 09/M02 A3018 RMK A01 T00901022  RH  045%=      5-min Rain = 0
KVA1 311129Z 21008KT 09/M02 A3018 RMK A01 T00891023  RH  045%=      5-min Rain = 0
KVA1 311130Z 21008KT 09/M02 A3018 RMK A01 T00881022  RH  046%=      5-min Rain = 0
KVA1 311131Z 21008KT 09/M02 A3018 RMK A01 T00881022  RH  046%=      5-min Rain = 0
KVA1 311132Z 20008KT 09/M02 A3018 RMK A01 T00891021  RH  046%=      5-min Rain = 0
KVA1 311133Z 20008KT 09/M02 A3018 RMK A01 T00901020  RH  046%=      5-min Rain = 0
KVA1 311134Z 20008KT 09/M02 A3018 RMK A01 T00911020  RH  046%=      5-min Rain = 0
KVA1 311135Z 21009KT 09/M02 A3018 RMK A01 T00911020  RH  046%=      5-min Rain = 0
KVA1 311136Z 21009KT 09/M02 A3018 RMK A01 T00911020  RH  046%=      5-min Rain = 0
KVA1 311137Z 21008KT 09/M02 A3018 RMK A01 T00911021  RH  045%=      5-min Rain = 0
KVA1 311138Z 21008KT 09/M02 A3019 RMK A01 T00901022  RH  045%=      5-min Rain = 0
KVA1 311139Z 21008KT 09/M02 A3019 RMK A01 T00891023  RH  045%=      5-min Rain = 0
KVA1 311140Z 21007KT 09/M02 A3019 RMK A01 T00871024  RH  046%=      5-min Rain = 0
KVA1 311141Z 21007KT 09/M03 A3019 RMK A01 T00861025  RH  046%=      5-min Rain = 0
KVA1 311142Z 21008KT 08/M02 A3019 RMK A01 T00841024  RH  046%=      5-min Rain = 0
KVA1 311143Z 21007KT 08/M02 A3019 RMK A01 T00841024  RH  047%=      5-min Rain = 0
KVA1 311144Z 21007KT 08/M02 A3019 RMK A01 T00831024  RH  047%=      5-min Rain = 0
KVA1 311145Z 21008KT 08/M02 A3019 RMK A01 T00831024  RH  047%=      5-min Rain = 0
KVA1 311146Z 21008KT 08/M02 A3019 RMK A01 T00831024  RH  047%=      5-min Rain = 0
KVA1 311147Z 21008KT 08/M02 A3019 RMK A01 T00831023  RH  047%=      5-min Rain = 0
KVA1 311148Z 21007KT 08/M02 A3019 RMK A01 T00841022  RH  047%=      5-min Rain = 0
KVA1 311149Z 22007KT 09/M02 A3019 RMK A01 T00851022  RH  047%=      5-min Rain = 0
KVA1 311150Z 22006KT 09/M02 A3019 RMK A01 T00851023  RH  047%=      5-min Rain = 0
KVA1 311151Z 22006KT 08/M02 A3019 RMK A01 T00841023  RH  047%=      5-min Rain = 0
KVA1 311152Z 21005KT 08/M02 A3019 RMK A01 T00841024  RH  047%=      5-min Rain = 0
KVA1 311153Z 21006KT 08/M03 A3019 RMK A01 T00821025  RH  047%=      5-min Rain = 0
KVA1 311154Z 21005KT 08/M03 A3019 RMK A01 T00821025  RH  047%=      5-min Rain = 0
KVA1 311155Z 21005KT 08/M03 A3019 RMK A01 T00811025  RH  047%=      5-min Rain = 0
KVA1 311156Z 21005KT 08/M03 A3019 RMK A01 T00791025  RH  047%=      5-min Rain = 0
KVA1 311157Z 21005KT 08/M03 A3019 RMK A01 T00791025  RH  048%=      5-min Rain = 0
KVA1 311158Z 21005KT 08/M03 A3019 RMK A01 T00781025  RH  048%=      5-min Rain = 0
KVA1 311159Z 21006KT 08/M03 A3019 RMK A01 T00781025  RH  048%=      5-min Rain = 0
KVA1 311200Z 21006KT 08/M03 A3019 RMK A01 T00781025  RH  048%=      5-min Rain = 0
KVA1 311201Z 21006KT 08/M03 A3019 RMK A01 T00771025  RH  048%=      5-min Rain = 0
KVA1 311202Z 21006KT 08/M03 A3019 RMK A01 T00771026  RH  048%=      5-min Rain = 0
KVA1 311203Z 21006KT 08/M03 A3019 RMK A01 T00761025  RH  049%=      5-min Rain = 0
KVA1 311204Z 21006KT 08/M03 A3019 RMK A01 T00761025  RH  049%=      5-min Rain = 0
KVA1 311205Z 21006KT 08/M03 A3019 RMK A01 T00761026  RH  049%=      5-min Rain = 0
KVA1 311206Z 21006KT 08/M03 A3019 RMK A01 T00751026  RH  049%=      5-min Rain = 0
KVA1 311207Z 21005KT 08/M03 A3019 RMK A01 T00751026  RH  049%=      5-min Rain = 0
KVA1 311208Z 21004KT 07/M03 A3019 RMK A01 T00741026  RH  049%=      5-min Rain = 0
KVA1 311209Z 20004KT 07/M03 A3019 RMK A01 T00731026  RH  049%=      5-min Rain = 0
KVA1 311210Z 21005KT 07/M03 A3019 RMK A01 T00721026  RH  050%=      5-min Rain = 0
KVA1 311211Z 21006KT 07/M03 A3019 RMK A01 T00711027  RH  050%=      5-min Rain = 0
KVA1 311212Z 21007KT 07/M03 A3019 RMK A01 T00701027  RH  050%=      5-min Rain = 0
KVA1 311213Z 21007KT 07/M03 A3019 RMK A01 T00691027  RH  050%=      5-min Rain = 0
KVA1 311214Z 21007KT 07/M03 A3019 RMK A01 T00691026  RH  051%=      5-min Rain = 0
KVA1 311215Z 21006KT 07/M03 A3019 RMK A01 T00701025  RH  051%=      5-min Rain = 0
KVA1 311216Z 20006KT 07/M03 A3019 RMK A01 T00711025  RH  050%=      5-min Rain = 0
KVA1 311217Z 20006KT 07/M03 A3019 RMK A01 T00711025  RH  050%=      5-min Rain = 0
KVA1 311218Z 20005KT 07/M03 A3019 RMK A01 T00711026  RH  050%=      5-min Rain = 0
KVA1 311219Z 20006KT 07/M03 A3019 RMK A01 T00701027  RH  050%=      5-min Rain = 0
KVA1 311220Z 20006KT 07/M03 A3019 RMK A01 T00691027  RH  050%=      5-min Rain = 0
KVA1 311221Z 20006KT 07/M03 A3019 RMK A01 T00681027  RH  051%=      5-min Rain = 0
KVA1 311222Z 20006KT 07/M03 A3019 RMK A01 T00681027  RH  051%=      5-min Rain = 0
KVA1 311223Z 20007KT 07/M03 A3019 RMK A01 T00681026  RH  051%=      5-min Rain = 0
KVA1 311224Z 20006KT 07/M03 A3019 RMK A01 T00681026  RH  051%=      5-min Rain = 0
KVA1 311225Z 21006KT 07/M03 A3019 RMK A01 T00691026  RH  051%=      5-min Rain = 0
KVA1 311226Z 21006KT 07/M03 A3019 RMK A01 T00691026  RH  051%=      5-min Rain = 0
KVA1 311227Z 21006KT 07/M03 A3019 RMK A01 T00691026  RH  051%=      5-min Rain = 0
KVA1 311228Z 20006KT 07/M03 A3019 RMK A01 T00681026  RH  051%=      5-min Rain = 0
KVA1 311229Z 20006KT 07/M03 A3019 RMK A01 T00691025  RH  051%=      5-min Rain = 0
KVA1 311230Z 20006KT 07/M03 A3019 RMK A01 T00691025  RH  051%=      5-min Rain = 0
KVA1 311231Z 21006KT 07/M03 A3019 RMK A01 T00691025  RH  051%=      5-min Rain = 0
KVA1 311232Z 21006KT 07/M03 A3019 RMK A01 T00701025  RH  051%=      5-min Rain = 0
KVA1 311233Z 21006KT 07/M02 A3019 RMK A01 T00701024  RH  051%=      5-min Rain = 0
KVA1 311234Z 21006KT 07/M02 A3019 RMK A01 T00711024  RH  051%=      5-min Rain = 0
KVA1 311235Z 22006KT 07/M02 A302 RMK A01 T00721023  RH  051%=      5-min Rain = 0
KVA1 311236Z 21006KT 07/M02 A302 RMK A01 T00721023  RH  051%=      5-min Rain = 0
KVA1 311237Z 21006KT 07/M02 A302 RMK A01 T00731023  RH  050%=      5-min Rain = 0
KVA1 311238Z 21005KT 07/M02 A302 RMK A01 T00731023  RH  050%=      5-min Rain = 0
KVA1 311239Z 22005KT 07/M02 A302 RMK A01 T00741023  RH  050%=      5-min Rain = 0
KVA1 311240Z 21005KT 07/M02 A302 RMK A01 T00741024  RH  050%=      5-min Rain = 0
KVA1 311241Z 22005KT 07/M02 A302 RMK A01 T00741024  RH  050%=      5-min Rain = 0
KVA1 311242Z 22005KT 07/M02 A302 RMK A01 T00741024  RH  050%=      5-min Rain = 0
KVA1 311243Z 22006KT 07/M02 A302 RMK A01 T00731024  RH  050%=      5-min Rain = 0
KVA1 311244Z 22006KT 07/M02 A302 RMK A01 T00731024  RH  050%=      5-min Rain = 0
KVA1 311245Z 22006KT 07/M02 A302 RMK A01 T00721024  RH  050%=      5-min Rain = 0
KVA1 311246Z 22007KT 07/M02 A302 RMK A01 T00721024  RH  051%=      5-min Rain = 0
KVA1 311247Z 22007KT 07/M02 A302 RMK A01 T00721023  RH  051%=      5-min Rain = 0
KVA1 311248Z 22007KT 07/M02 A302 RMK A01 T00721023  RH  051%=      5-min Rain = 0
KVA1 311249Z 22007KT 07/M02 A302 RMK A01 T00721023  RH  051%=      5-min Rain = 0
KVA1 311250Z 22007KT 07/M02 A302 RMK A01 T00731023  RH  051%=      5-min Rain = 0
KVA1 311251Z 22007KT 07/M02 A302 RMK A01 T00741023  RH  050%=      5-min Rain = 0
KVA1 311252Z 22006KT 07/M02 A302 RMK A01 T00741023  RH  050%=      5-min Rain = 0
KVA1 311253Z 22006KT 07/M02 A302 RMK A01 T00731023  RH  050%=      5-min Rain = 0
KVA1 311254Z 22006KT 07/M02 A302 RMK A01 T00721024  RH  050%=      5-min Rain = 0
KVA1 311255Z 22005KT 07/M02 A302 RMK A01 T00721023  RH  051%=      5-min Rain = 0
KVA1 311256Z 22005KT 07/M02 A302 RMK A01 T00711024  RH  051%=      5-min Rain = 0
KVA1 311257Z 22004KT 07/M02 A302 RMK A01 T00701024  RH  051%=      5-min Rain = 0
KVA1 311258Z 22004KT 07/M02 A302 RMK A01 T00701024  RH  051%=      5-min Rain = 0
KVA1 311259Z 22004KT 07/M02 A302 RMK A01 T00691024  RH  052%=      5-min Rain = 0
KVA1 311300Z 23004KT 07/M03 A302 RMK A01 T00681025  RH  052%=      5-min Rain = 0
KVA1 311301Z 23004KT 07/M03 A302 RMK A01 T00671025  RH  052%=      5-min Rain = 0
KVA1 311302Z 23004KT 07/M02 A302 RMK A01 T00671024  RH  052%=      5-min Rain = 0
KVA1 311303Z 23004KT 07/M03 A302 RMK A01 T00661025  RH  052%=      5-min Rain = 0
KVA1 311304Z 24004KT 07/M02 A302 RMK A01 T00661024  RH  053%=      5-min Rain = 0
KVA1 311305Z 24004KT 07/M02 A302 RMK A01 T00661024  RH  053%=      5-min Rain = 0
KVA1 311306Z 24004KT 07/M03 A302 RMK A01 T00651025  RH  053%=      5-min Rain = 0
KVA1 311307Z 24005KT 06/M02 A302 RMK A01 T00641024  RH  053%=      5-min Rain = 0
KVA1 311308Z 24004KT 06/M02 A302 RMK A01 T00641024  RH  053%=      5-min Rain = 0
KVA1 311309Z 24004KT 06/M03 A302 RMK A01 T00631025  RH  053%=      5-min Rain = 0
KVA1 311310Z 24004KT 06/M03 A302 RMK A01 T00631025  RH  053%=      5-min Rain = 0
KVA1 311311Z 24004KT 06/M03 A302 RMK A01 T00621025  RH  053%=      5-min Rain = 0
KVA1 311312Z 24004KT 06/M03 A302 RMK A01 T00621026  RH  054%=      5-min Rain = 0
KVA1 311313Z 24003KT 06/M03 A302 RMK A01 T00611026  RH  054%=      5-min Rain = 0
KVA1 311314Z 24002KT 06/M03 A302 RMK A01 T00601027  RH  053%=      5-min Rain = 0
KVA1 311315Z 25002KT 06/M03 A302 RMK A01 T00591027  RH  054%=      5-min Rain = 0
KVA1 311316Z 25002KT 06/M03 A302 RMK A01 T00581027  RH  054%=      5-min Rain = 0
KVA1 311317Z 25002KT 06/M03 A302 RMK A01 T00571027  RH  055%=      5-min Rain = 0
KVA1 311318Z 25002KT 06/M03 A302 RMK A01 T00561026  RH  055%=      5-min Rain = 0
KVA1 311319Z 25001KT 06/M03 A3021 RMK A01 T00561030  RH  054%=      5-min Rain = 0
KVA1 311320Z 25001KT 06/M03 A3021 RMK A01 T00551032  RH  054%=      5-min Rain = 0
KVA1 311321Z 24001KT 05/M03 A3021 RMK A01 T00531031  RH  055%=      5-min Rain = 0
KVA1 311322Z 24002KT 05/M03 A3021 RMK A01 T00521029  RH  056%=      5-min Rain = 0
KVA1 311323Z 24002KT 05/M03 A3021 RMK A01 T00521028  RH  056%=      5-min Rain = 0
KVA1 311324Z 23002KT 05/M03 A3021 RMK A01 T00521030  RH  055%=      5-min Rain = 0
KVA1 311325Z 21001KT 05/M03 A3021 RMK A01 T00521033  RH  054%=      5-min Rain = 0
KVA1 311326Z 23002KT 05/M03 A3021 RMK A01 T00511031  RH  055%=      5-min Rain = 0
KVA1 311327Z 22002KT 05/M03 A3021 RMK A01 T00521029  RH  056%=      5-min Rain = 0
KVA1 311328Z 22001KT 05/M03 A3021 RMK A01 T00521031  RH  055%=      5-min Rain = 0
KVA1 311329Z 23003KT 05/M03 A3021 RMK A01 T00531027  RH  056%=      5-min Rain = 0
KVA1 311330Z 21002KT 05/M03 A3021 RMK A01 T00541026  RH  056%=      5-min Rain = 0
KVA1 311331Z 21003KT 06/M03 A3021 RMK A01 T00561026  RH  056%=      5-min Rain = 0
KVA1 311332Z 19002KT 06/M03 A3021 RMK A01 T00571026  RH  055%=      5-min Rain = 0
KVA1 311333Z 18002KT 06/M03 A3021 RMK A01 T00581030  RH  053%=      5-min Rain = 0
KVA1 311334Z 20002KT 06/M03 A3021 RMK A01 T00591029  RH  053%=      5-min Rain = 0
KVA1 311335Z 19001KT 06/M03 A3021 RMK A01 T00611026  RH  054%=      5-min Rain = 0
KVA1 311336Z 22002KT 06/M03 A3021 RMK A01 T00621030  RH  052%=      5-min Rain = 0
KVA1 311337Z 22003KT 06/M03 A3021 RMK A01 T00621027  RH  053%=      5-min Rain = 0
KVA1 311338Z 22002KT 06/M03 A3021 RMK A01 T00641025  RH  053%=      5-min Rain = 0
KVA1 311339Z 22002KT 07/M02 A3021 RMK A01 T00651024  RH  053%=      5-min Rain = 0
KVA1 311340Z 22002KT 07/M03 A3021 RMK A01 T00661027  RH  052%=      5-min Rain = 0
KVA1 311341Z 22002KT 07/M03 A3021 RMK A01 T00671027  RH  051%=      5-min Rain = 0
KVA1 311342Z 23002KT 07/M03 A3021 RMK A01 T00681026  RH  051%=      5-min Rain = 0
KVA1 311343Z 23002KT 07/M02 A3021 RMK A01 T00701024  RH  051%=      5-min Rain = 0
KVA1 311344Z 24002KT 07/M02 A3021 RMK A01 T00721022  RH  051%=      5-min Rain = 0
KVA1 311345Z 22001KT 07/M02 A3021 RMK A01 T00741024  RH  050%=      5-min Rain = 0
KVA1 311346Z 23001KT 08/M03 A3021 RMK A01 T00751025  RH  049%=      5-min Rain = 0
KVA1 311347Z 22002KT 08/M02 A3021 RMK A01 T00761023  RH  049%=      5-min Rain = 0
KVA1 311348Z 23002KT 08/M02 A3021 RMK A01 T00771023  RH  049%=      5-min Rain = 0
KVA1 311349Z 24001KT 08/M02 A3021 RMK A01 T00781022  RH  049%=      5-min Rain = 0
KVA1 311350Z 24001KT 08/M02 A3022 RMK A01 T00791022  RH  049%=      5-min Rain = 0
KVA1 311351Z 24001KT 08/M02 A3022 RMK A01 T00791022  RH  049%=      5-min Rain = 0
KVA1 311352Z 28002KT 08/M02 A3022 RMK A01 T00801022  RH  049%=      5-min Rain = 0
KVA1 311353Z 28002KT 08/M02 A3022 RMK A01 T00801021  RH  049%=      5-min Rain = 0
KVA1 311354Z 26001KT 08/M02 A3022 RMK A01 T00801021  RH  049%=      5-min Rain = 0
KVA1 311355Z 24002KT 08/M02 A3022 RMK A01 T00801021  RH  049%=      5-min Rain = 0
KVA1 311356Z 23002KT 08/M02 A3022 RMK A01 T00801020  RH  049%=      5-min Rain = 0
KVA1 311357Z 23002KT 08/M02 A3022 RMK A01 T00811020  RH  049%=      5-min Rain = 0
KVA1 311358Z 21002KT 08/M02 A3022 RMK A01 T00821019  RH  049%=      5-min Rain = 0
KVA1 311359Z 21002KT 08/M02 A3022 RMK A01 T00831019  RH  048%=      5-min Rain = 0
KVA1 311400Z 21003KT 08/M02 A3022 RMK A01 T00841019  RH  048%=      5-min Rain = 0
KVA1 311401Z 21003KT 09/M02 A3022 RMK A01 T00861018  RH  048%=      5-min Rain = 0
KVA1 311402Z 21003KT 09/M02 A3022 RMK A01 T00891017  RH  048%=      5-min Rain = 0
KVA1 311403Z 21003KT 09/M02 A3022 RMK A01 T00911017  RH  047%=      5-min Rain = 0
KVA1 311404Z 20003KT 09/M02 A3022 RMK A01 T00921017  RH  046%=      5-min Rain = 0
KVA1 311405Z 20003KT 09/M02 A3022 RMK A01 T00941017  RH  046%=      5-min Rain = 0
KVA1 311406Z 20004KT 10/M02 A3022 RMK A01 T00951016  RH  046%=      5-min Rain = 0
KVA1 311407Z 19003KT 10/M02 A3022 RMK A01 T00961017  RH  045%=      5-min Rain = 0
KVA1 311408Z 20004KT 10/M02 A3022 RMK A01 T00971017  RH  045%=      5-min Rain = 0
KVA1 311409Z 19003KT 10/M02 A3022 RMK A01 T00981017  RH  045%=      5-min Rain = 0
KVA1 311410Z 20004KT 10/M02 A3022 RMK A01 T00981018  RH  044%=      5-min Rain = 0
KVA1 311411Z 19004KT 10/M02 A3022 RMK A01 T00981018  RH  044%=      5-min Rain = 0
KVA1 311412Z 18005KT 10/M02 A3022 RMK A01 T00981018  RH  044%=      5-min Rain = 0
KVA1 311413Z 18005KT 10/M02 A3022 RMK A01 T00981018  RH  044%=      5-min Rain = 0
KVA1 311414Z 19005KT 10/M02 A3022 RMK A01 T00981018  RH  044%=      5-min Rain = 0
KVA1 311415Z 18005KT 10/M02 A3022 RMK A01 T00981018  RH  044%=      5-min Rain = 0
KVA1 311416Z 18005KT 10/M02 A3022 RMK A01 T00981019  RH  044%=      5-min Rain = 0
KVA1 311417Z 19005KT 10/M02 A3022 RMK A01 T00981019  RH  044%=      5-min Rain = 0
KVA1 311418Z 18004KT 10/M02 A3022 RMK A01 T00981019  RH  044%=      5-min Rain = 0
KVA1 311419Z 18005KT 10/M02 A3022 RMK A01 T00991019  RH  044%=      5-min Rain = 0
KVA1 311420Z 18004KT 10/M02 A3022 RMK A01 T00991019  RH  044%=      5-min Rain = 0
KVA1 311421Z 18005KT 10/M02 A3023 RMK A01 T01001019  RH  043%=      5-min Rain = 0
KVA1 311422Z 17004KT 10/M02 A3023 RMK A01 T01001019  RH  043%=      5-min Rain = 0
KVA1 311423Z 18004KT 10/M02 A3023 RMK A01 T01011019  RH  043%=      5-min Rain = 0
KVA1 311424Z 17004KT 10/M02 A3023 RMK A01 T01021019  RH  043%=      5-min Rain = 0
KVA1 311425Z 17004KT 10/M02 A3023 RMK A01 T01031019  RH  042%=      5-min Rain = 0
KVA1 311426Z 16004KT 10/M02 A3023 RMK A01 T01041019  RH  042%=      5-min Rain = 0
KVA1 311427Z 16005KT 11/M02 A3023 RMK A01 T01051020  RH  042%=      5-min Rain = 0
KVA1 311428Z 16006KT 11/M02 A3023 RMK A01 T01051021  RH  041%=      5-min Rain = 0
KVA1 311429Z 16006KT 11/M02 A3023 RMK A01 T01051021  RH  041%=      5-min Rain = 0
KVA1 311430Z 16006KT 10/M02 A3023 RMK A01 T01041021  RH  041%=      5-min Rain = 0
KVA1 311431Z 17006KT 11/M02 A3023 RMK A01 T01051021  RH  041%=      5-min Rain = 0
KVA1 311432Z 17005KT 10/M02 A3023 RMK A01 T01041021  RH  041%=      5-min Rain = 0
KVA1 311433Z 17005KT 10/M02 A3023 RMK A01 T01041021  RH  041%=      5-min Rain = 0
KVA1 311434Z 18005KT 11/M02 A3023 RMK A01 T01051021  RH  041%=      5-min Rain = 0
KVA1 311435Z 18006KT 11/M02 A3023 RMK A01 T01061021  RH  041%=      5-min Rain = 0
KVA1 311436Z 18005KT 11/M02 A3023 RMK A01 T01071020  RH  041%=      5-min Rain = 0
KVA1 311437Z 17005KT 11/M02 A3023 RMK A01 T01071020  RH  041%=      5-min Rain = 0
KVA1 311438Z 17006KT 11/M02 A3023 RMK A01 T01091019  RH  041%=      5-min Rain = 0
KVA1 311439Z 17005KT 11/M02 A3023 RMK A01 T01091020  RH  041%=      5-min Rain = 0
KVA1 311440Z 18005KT 11/M02 A3023 RMK A01 T01101020  RH  040%=      5-min Rain = 0
KVA1 311441Z 17004KT 11/M02 A3023 RMK A01 T01111019  RH  040%=      5-min Rain = 0
KVA1 311442Z 16004KT 11/M02 A3023 RMK A01 T01131018  RH  040%=      5-min Rain = 0
KVA1 311443Z 17004KT 12/M02 A3023 RMK A01 T01151018  RH  040%=      5-min Rain = 0
KVA1 311444Z 17004KT 12/M02 A3024 RMK A01 T01171017  RH  039%=      5-min Rain = 0
KVA1 311445Z 18004KT 12/M02 A3024 RMK A01 T01181017  RH  039%=      5-min Rain = 0
KVA1 311446Z 17005KT 12/M02 A3024 RMK A01 T01201017  RH  039%=      5-min Rain = 0
KVA1 311447Z 17005KT 12/M02 A3024 RMK A01 T01201017  RH  039%=      5-min Rain = 0
KVA1 311448Z 18006KT 12/M02 A3024 RMK A01 T01211016  RH  039%=      5-min Rain = 0
KVA1 311449Z 18005KT 12/M01 A3024 RMK A01 T01221014  RH  039%=      5-min Rain = 0
KVA1 311450Z 17004KT 12/M02 A3024 RMK A01 T01231015  RH  038%=      5-min Rain = 0
KVA1 311451Z 18006KT 13/M02 A3024 RMK A01 T01251015  RH  038%=      5-min Rain = 0
KVA1 311452Z 17006KT 13/M01 A3024 RMK A01 T01261013  RH  038%=      5-min Rain = 0
KVA1 311453Z 17005KT 13/M01 A3024 RMK A01 T01271012  RH  038%=      5-min Rain = 0
KVA1 311454Z 18006KT 13/M01 A3024 RMK A01 T01281011  RH  038%=      5-min Rain = 0
KVA1 311455Z 16005KT 13/M01 A3024 RMK A01 T01291011  RH  038%=      5-min Rain = 0
KVA1 311456Z 17003KT 13/M01 A3024 RMK A01 T01291012  RH  038%=      5-min Rain = 0
KVA1 311457Z 17005KT 13/M01 A3024 RMK A01 T01301011  RH  038%=      5-min Rain = 0
KVA1 311458Z 18005KT 13/M01 A3024 RMK A01 T01321009  RH  038%=      5-min Rain = 0
KVA1 311459Z 18006KT 13/M01 A3024 RMK A01 T01321009  RH  038%=      5-min Rain = 0
KVA1 311500Z 18007KT 13/M01 A3024 RMK A01 T01331010  RH  037%=      5-min Rain = 0
KVA1 311501Z 17005KT 13/M01 A3024 RMK A01 T01321010  RH  037%=      5-min Rain = 0
KVA1 311502Z 15003KT 13/M01 A3025 RMK A01 T01331011  RH  037%=      5-min Rain = 0
KVA1 311503Z 16005KT 13/M01 A3025 RMK A01 T01341011  RH  037%=      5-min Rain = 0
KVA1 311504Z 17005KT 14/M01 A3025 RMK A01 T01361009  RH  037%=      5-min Rain = 0
KVA1 311505Z 18005KT 14/M01 A3025 RMK A01 T01371009  RH  036%=      5-min Rain = 0
KVA1 311506Z 19005KT 14/M01 A3025 RMK A01 T01371009  RH  036%=      5-min Rain = 0
KVA1 311507Z 18005KT 14/M01 A3025 RMK A01 T01371010  RH  036%=      5-min Rain = 0
KVA1 311508Z 17004KT 14/M01 A3025 RMK A01 T01361010  RH  036%=      5-min Rain = 0
KVA1 311509Z 17005KT 14/M01 A3025 RMK A01 T01371009  RH  036%=      5-min Rain = 0
KVA1 311510Z 19005KT 14/M01 A3025 RMK A01 T01391009  RH  036%=      5-min Rain = 0
KVA1 311511Z 18007KT 14/M01 A3025 RMK A01 T01401008  RH  036%=      5-min Rain = 0
KVA1 311512Z 17005KT 14/M01 A3025 RMK A01 T01401008  RH  036%=      5-min Rain = 0
KVA1 311513Z 20005KT 14/M01 A3025 RMK A01 T01411007  RH  036%=      5-min Rain = 0
KVA1 311514Z 19007KT 14/M01 A3025 RMK A01 T01421008  RH  036%=      5-min Rain = 0
KVA1 311515Z 20007KT 14/M01 A3025 RMK A01 T01411008  RH  036%=      5-min Rain = 0
KVA1 311516Z 19006KT 14/M01 A3025 RMK A01 T01401008  RH  036%=      5-min Rain = 0
KVA1 311517Z 20006KT 14/M01 A3025 RMK A01 T01401008  RH  036%=      5-min Rain = 0
KVA1 311518Z 20006KT 14/M01 A3025 RMK A01 T01421007  RH  036%=      5-min Rain = 0
KVA1 311519Z 20005KT 14/M01 A3025 RMK A01 T01431007  RH  036%=      5-min Rain = 0
KVA1 311520Z 20004KT 14/M01 A3025 RMK A01 T01441006  RH  035%=      5-min Rain = 0
KVA1 311521Z 20006KT 15/M01 A3025 RMK A01 T01461006  RH  035%=      5-min Rain = 0
KVA1 311522Z 20004KT 15/M01 A3025 RMK A01 T01471006  RH  035%=      5-min Rain = 0
KVA1 311523Z 20004KT 15/M01 A3026 RMK A01 T01481006  RH  035%=      5-min Rain = 0
KVA1 311524Z 20006KT 15/M01 A3026 RMK A01 T01501005  RH  034%=      5-min Rain = 0
KVA1 311525Z 21006KT 15/M01 A3026 RMK A01 T01501006  RH  034%=      5-min Rain = 0
KVA1 311526Z 20007KT 15/M01 A3026 RMK A01 T01501006  RH  034%=      5-min Rain = 0
KVA1 311527Z 20006KT 15/M01 A3026 RMK A01 T01501006  RH  034%=      5-min Rain = 0
KVA1 311528Z 20006KT 15/M01 A3026 RMK A01 T01501006  RH  034%=      5-min Rain = 0
KVA1 311529Z 21007KT 15/M01 A3026 RMK A01 T01511006  RH  034%=      5-min Rain = 0
KVA1 311530Z 19007KT 15/M01 A3026 RMK A01 T01531005  RH  034%=      5-min Rain = 0
KVA1 311531Z 20007KT 15/M00 A3026 RMK A01 T01541004  RH  034%=      5-min Rain = 0
KVA1 311532Z 20006KT 16/M00 A3026 RMK A01 T01551004  RH  034%=      5-min Rain = 0
KVA1 311533Z 20006KT 16/M01 A3026 RMK A01 T01551005  RH  033%=      5-min Rain = 0
KVA1 311534Z 20007KT 16/M00 A3026 RMK A01 T01571004  RH  033%=      5-min Rain = 0
KVA1 311535Z 21006KT 16/M01 A3026 RMK A01 T01571005  RH  033%=      5-min Rain = 0
KVA1 311536Z 20005KT 16/M00 A3026 RMK A01 T01581004  RH  033%=      5-min Rain = 0
KVA1 311537Z 19006KT 16/M00 A3026 RMK A01 T01601004  RH  033%=      5-min Rain = 0
KVA1 311538Z 19007KT 16/M00 A3026 RMK A01 T01611004  RH  033%=      5-min Rain = 0
KVA1 311539Z 20006KT 16/M00 A3026 RMK A01 T01621003  RH  032%=      5-min Rain = 0
KVA1 311540Z 20006KT 16/M00 A3026 RMK A01 T01621004  RH  032%=      5-min Rain = 0
KVA1 311541Z 20005KT 16/M01 A3026 RMK A01 T01611005  RH  032%=      5-min Rain = 0
KVA1 311542Z 21004KT 16/M01 A3026 RMK A01 T01611005  RH  032%=      5-min Rain = 0
KVA1 311543Z 21005KT 16/M00 A3026 RMK A01 T01621004  RH  032%=      5-min Rain = 0
KVA1 311544Z 21004KT 16/M01 A3026 RMK A01 T01631005  RH  032%=      5-min Rain = 0
KVA1 311545Z 21004KT 16/M00 A3026 RMK A01 T01631004  RH  032%=      5-min Rain = 0
KVA1 311546Z 22005KT 16/M01 A3026 RMK A01 T01631005  RH  032%=      5-min Rain = 0
KVA1 311547Z 21005KT 16/M00 A3026 RMK A01 T01631004  RH  032%=      5-min Rain = 0
KVA1 311548Z 20005KT 16/M01 A3026 RMK A01 T01631005  RH  032%=      5-min Rain = 0
KVA1 311549Z 21005KT 16/M01 A3026 RMK A01 T01631005  RH  032%=      5-min Rain = 0
KVA1 311550Z 20004KT 16/M01 A3026 RMK A01 T01621005  RH  032%=      5-min Rain = 0
KVA1 311551Z 20005KT 16/M01 A3026 RMK A01 T01631005  RH  032%=      5-min Rain = 0
KVA1 311552Z 20005KT 16/M00 A3026 RMK A01 T01641004  RH  032%=      5-min Rain = 0
KVA1 311553Z 20006KT 17/M01 A3026 RMK A01 T01651005  RH  032%=      5-min Rain = 0
KVA1 311554Z 19006KT 17/M01 A3026 RMK A01 T01651005  RH  032%=      5-min Rain = 0
KVA1 311555Z 20005KT 17/M00 A3026 RMK A01 T01651004  RH  032%=      5-min Rain = 0
KVA1 311556Z 21005KT 17/M00 A3026 RMK A01 T01661004  RH  031%=      5-min Rain = 0
KVA1 311557Z 20005KT 17/M00 A3026 RMK A01 T01661004  RH  032%=      5-min Rain = 0
KVA1 311558Z 21005KT 17/M00 A3026 RMK A01 T01671003  RH  031%=      5-min Rain = 0
KVA1 311559Z 21005KT 17/M00 A3026 RMK A01 T01681004  RH  031%=      5-min Rain = 0
KVA1 311600Z 22005KT 17/M00 A3026 RMK A01 T01691003  RH  031%=      5-min Rain = 0
KVA1 311601Z 19005KT 17/M00 A3026 RMK A01 T01701003  RH  031%=      5-min Rain = 0
KVA1 311602Z 20005KT 17/M00 A3026 RMK A01 T01711003  RH  031%=      5-min Rain = 0
KVA1 311603Z 21006KT 17/M00 A3026 RMK A01 T01711003  RH  031%=      5-min Rain = 0
KVA1 311604Z 20006KT 17/M00 A3026 RMK A01 T01711003  RH  031%=      5-min Rain = 0
KVA1 311605Z 18005KT 17/M01 A3026 RMK A01 T01701005  RH  031%=      5-min Rain = 0
KVA1 311606Z 20007KT 17/M00 A3026 RMK A01 T01701003  RH  031%=      5-min Rain = 0
KVA1 311607Z 18006KT 17/M00 A3026 RMK A01 T01721003  RH  031%=      5-min Rain = 0
KVA1 311608Z 19004KT 17/M00 A3026 RMK A01 T01721003  RH  030%=      5-min Rain = 0
KVA1 311609Z 19006KT 17/M00 A3026 RMK A01 T01741002  RH  030%=      5-min Rain = 0
KVA1 311610Z 18006KT 17/M00 A3026 RMK A01 T01741003  RH  030%=      5-min Rain = 0
KVA1 311611Z 18005KT 17/M00 A3026 RMK A01 T01741003  RH  030%=      5-min Rain = 0
KVA1 311612Z 21004KT 18/M00 A3026 RMK A01 T01771002  RH  030%=      5-min Rain = 0
KVA1 311613Z 22005KT 18/M00 A3026 RMK A01 T01771002  RH  030%=      5-min Rain = 0
KVA1 311614Z 22006KT 18/M00 A3026 RMK A01 T01781002  RH  029%=      5-min Rain = 0
KVA1 311615Z 22005KT 18/M00 A3026 RMK A01 T01791003  RH  029%=      5-min Rain = 0
KVA1 311616Z 22004KT 18/M00 A3026 RMK A01 T01791003  RH  029%=      5-min Rain = 0
KVA1 311617Z 21005KT 18/M00 A3026 RMK A01 T01791003  RH  029%=      5-min Rain = 0
KVA1 311618Z 21004KT 18/M00 A3026 RMK A01 T01781003  RH  029%=      5-min Rain = 0
KVA1 311619Z 21007KT 18/M00 A3026 RMK A01 T01801001  RH  029%=      5-min Rain = 0
KVA1 311620Z 20006KT 18/M00 A3026 RMK A01 T01821002  RH  029%=      5-min Rain = 0
KVA1 311621Z 20007KT 18/M00 A3026 RMK A01 T01831001  RH  029%=      5-min Rain = 0
KVA1 311622Z 18007KT 18/M00 A3026 RMK A01 T01831002  RH  029%=      5-min Rain = 0
KVA1 311623Z 18007KT 18/M00 A3026 RMK A01 T01841002  RH  029%=      5-min Rain = 0
KVA1 311624Z 17006KT 18/M00 A3026 RMK A01 T01841002  RH  028%=      5-min Rain = 0
KVA1 311625Z 18007KT 19/M00 A3026 RMK A01 T01861001  RH  028%=      5-min Rain = 0
KVA1 311626Z 20006KT 19/M00 A3026 RMK A01 T01881001  RH  028%=      5-min Rain = 0
KVA1 311627Z 20007KT 19/M00 A3026 RMK A01 T01881002  RH  028%=      5-min Rain = 0
KVA1 311628Z 19006KT 19/M00 A3026 RMK A01 T01871002  RH  028%=      5-min Rain = 0
KVA1 311629Z 20008KT 19/M00 A3026 RMK A01 T01851002  RH  028%=      5-min Rain = 0
KVA1 311630Z 19007KT 19/M00 A3026 RMK A01 T01871001  RH  028%=      5-min Rain = 0
KVA1 311631Z 18006KT 19/M00 A3026 RMK A01 T01881003  RH  028%=      5-min Rain = 0
KVA1 311632Z 17005KT 19/M00 A3026 RMK A01 T01861002  RH  028%=      5-min Rain = 0
KVA1 311633Z 18006KT 19/M00 A3026 RMK A01 T01881001  RH  028%=      5-min Rain = 0
KVA1 311634Z 18006KT 19/M00 A3026 RMK A01 T01891002  RH  028%=      5-min Rain = 0
KVA1 311635Z 18006KT 19/M00 A3026 RMK A01 T01881002  RH  028%=      5-min Rain = 0
KVA1 311636Z 17007KT 19/M00 A3026 RMK A01 T01881002  RH  028%=      5-min Rain = 0
KVA1 311637Z 17006KT 19/M00 A3026 RMK A01 T01901002  RH  028%=      5-min Rain = 0
KVA1 311638Z 18007KT 19/M00 A3026 RMK A01 T01901002  RH  027%=      5-min Rain = 0
KVA1 311639Z 18007KT 19/M00 A3026 RMK A01 T01911002  RH  027%=      5-min Rain = 0
KVA1 311640Z 20004KT 19/M00 A3026 RMK A01 T01921001  RH  027%=      5-min Rain = 0
KVA1 311641Z 17005KT 19/00 A3026 RMK A01 T01940001  RH  027%=      5-min Rain = 0
KVA1 311642Z 17005KT 20/00 A3026 RMK A01 T01960000  RH  027%=      5-min Rain = 0
KVA1 311643Z 19006KT 20/00 A3026 RMK A01 T019600-0  RH  027%=      5-min Rain = 0
KVA1 311644Z 21005KT 20/M00 A3026 RMK A01 T01971001  RH  026%=      5-min Rain = 0
KVA1 311645Z 18005KT 20/M00 A3026 RMK A01 T01951002  RH  027%=      5-min Rain = 0
KVA1 311646Z 17005KT 20/M00 A3026 RMK A01 T01951001  RH  027%=      5-min Rain = 0
KVA1 311647Z 19006KT 20/00 A3026 RMK A01 T019700-0  RH  027%=      5-min Rain = 0
KVA1 311648Z 19006KT 20/M00 A3026 RMK A01 T01961002  RH  026%=      5-min Rain = 0
KVA1 311649Z 19005KT 20/M00 A3026 RMK A01 T01951002  RH  027%=      5-min Rain = 0
KVA1 311650Z 18004KT 19/M00 A3026 RMK A01 T01941002  RH  027%=      5-min Rain = 0
KVA1 311651Z 22004KT 20/M00 A3026 RMK A01 T01951001  RH  027%=      5-min Rain = 0
KVA1 311652Z 20005KT 20/00 A3026 RMK A01 T01970001  RH  027%=      5-min Rain = 0
KVA1 311653Z 19006KT 20/00 A3026 RMK A01 T02000001  RH  026%=      5-min Rain = 0
KVA1 311654Z 20006KT 20/00 A3026 RMK A01 T02020001  RH  026%=      5-min Rain = 0
KVA1 311655Z 20006KT 20/00 A3026 RMK A01 T02030000  RH  026%=      5-min Rain = 0
KVA1 311656Z 19005KT 20/00 A3026 RMK A01 T020200-0  RH  026%=      5-min Rain = 0
KVA1 311657Z 20005KT 20/00 A3026 RMK A01 T020200-0  RH  026%=      5-min Rain = 0
KVA1 311658Z 21005KT 20/00 A3026 RMK A01 T020200-0  RH  026%=      5-min Rain = 0
KVA1 311659Z 23005KT 20/00 A3026 RMK A01 T020200-0  RH  026%=      5-min Rain = 0
KVA1 311700Z 21006KT 20/00 A3026 RMK A01 T020300-0  RH  026%=      5-min Rain = 0
KVA1 311701Z 23007KT 20/M00 A3026 RMK A01 T02011001  RH  026%=      5-min Rain = 0
KVA1 311702Z 23007KT 20/00 A3026 RMK A01 T020100-0  RH  026%=      5-min Rain = 0
KVA1 311703Z 21006KT 20/00 A3025 RMK A01 T02030000  RH  026%=      5-min Rain = 0
KVA1 311704Z 21007KT 20/M00 A3025 RMK A01 T02031001  RH  026%=      5-min Rain = 0
KVA1 311705Z 23005KT 20/00 A3025 RMK A01 T020200-0  RH  026%=      5-min Rain = 0
KVA1 311706Z 22005KT 20/00 A3025 RMK A01 T02040001  RH  026%=      5-min Rain = 0
KVA1 311707Z 21006KT 21/00 A3025 RMK A01 T02050000  RH  025%=      5-min Rain = 0
KVA1 311708Z 20006KT 21/00 A3025 RMK A01 T020500-0  RH  025%=      5-min Rain = 0
KVA1 311709Z 20006KT 21/00 A3025 RMK A01 T02060000  RH  025%=      5-min Rain = 0
KVA1 311710Z 20006KT 21/00 A3025 RMK A01 T02060000  RH  025%=      5-min Rain = 0
KVA1 311711Z 21008KT 21/00 A3025 RMK A01 T020700-0  RH  025%=      5-min Rain = 0
KVA1 311712Z 22007KT 21/M00 A3025 RMK A01 T02051001  RH  025%=      5-min Rain = 0
KVA1 311713Z 22006KT 21/00 A3025 RMK A01 T020500-0  RH  025%=      5-min Rain = 0
KVA1 311714Z 22006KT 21/00 A3025 RMK A01 T02060000  RH  025%=      5-min Rain = 0
KVA1 311715Z 20005KT 21/M00 A3025 RMK A01 T02061001  RH  025%=      5-min Rain = 0
KVA1 311716Z 21006KT 21/M00 A3025 RMK A01 T02061001  RH  025%=      5-min Rain = 0
KVA1 311717Z 21005KT 21/M00 A3025 RMK A01 T02051001  RH  025%=      5-min Rain = 0
KVA1 311718Z 19007KT 21/M00 A3025 RMK A01 T02051001  RH  025%=      5-min Rain = 0
KVA1 311719Z 18008KT 21/00 A3025 RMK A01 T02070000  RH  025%=      5-min Rain = 0
KVA1 311720Z 21006KT 21/00 A3025 RMK A01 T02080001  RH  025%=      5-min Rain = 0
KVA1 311721Z 20007KT 21/00 A3025 RMK A01 T02090000  RH  025%=      5-min Rain = 0
KVA1 311722Z 18007KT 21/00 A3025 RMK A01 T02100000  RH  025%=      5-min Rain = 0
KVA1 311723Z 18005KT 21/00 A3025 RMK A01 T021000-0  RH  025%=      5-min Rain = 0
KVA1 311724Z 18006KT 21/00 A3025 RMK A01 T02110001  RH  025%=      5-min Rain = 0
KVA1 311725Z 19006KT 21/00 A3025 RMK A01 T02130001  RH  024%=      5-min Rain = 0
KVA1 311726Z 21004KT 21/00 A3025 RMK A01 T02130001  RH  024%=      5-min Rain = 0
KVA1 311727Z 22005KT 21/00 A3025 RMK A01 T02130001  RH  024%=      5-min Rain = 0
KVA1 311728Z 22004KT 21/00 A3025 RMK A01 T02140001  RH  024%=      5-min Rain = 0
KVA1 311729Z 18006KT 22/00 A3024 RMK A01 T02150001  RH  024%=      5-min Rain = 0
KVA1 311730Z 20005KT 22/00 A3024 RMK A01 T02160002  RH  024%=      5-min Rain = 0
KVA1 311731Z 21005KT 22/00 A3024 RMK A01 T02190003  RH  024%=      5-min Rain = 0
KVA1 311732Z 20005KT 22/00 A3024 RMK A01 T02200002  RH  023%=      5-min Rain = 0
KVA1 311733Z 19003KT 22/00 A3024 RMK A01 T021800-0  RH  023%=      5-min Rain = 0
KVA1 311734Z 20004KT 22/00 A3024 RMK A01 T02170000  RH  024%=      5-min Rain = 0
KVA1 311735Z 18007KT 22/00 A3024 RMK A01 T02160001  RH  024%=      5-min Rain = 0
KVA1 311736Z 18005KT 22/00 A3024 RMK A01 T02180002  RH  024%=      5-min Rain = 0
KVA1 311737Z 18005KT 22/00 A3024 RMK A01 T02200002  RH  023%=      5-min Rain = 0
KVA1 311738Z 23004KT 22/00 A3024 RMK A01 T02200001  RH  023%=      5-min Rain = 0
KVA1 311739Z 20002KT 22/00 A3024 RMK A01 T02190001  RH  023%=      5-min Rain = 0
KVA1 311740Z 20004KT 22/00 A3024 RMK A01 T02190001  RH  023%=      5-min Rain = 0
KVA1 311741Z 21005KT 22/00 A3024 RMK A01 T02190001  RH  023%=      5-min Rain = 0
KVA1 311742Z 22005KT 22/00 A3024 RMK A01 T02190001  RH  023%=      5-min Rain = 0
KVA1 311743Z 18005KT 22/00 A3024 RMK A01 T02220003  RH  023%=      5-min Rain = 0
KVA1 311744Z 18005KT 23/00 A3024 RMK A01 T02250003  RH  023%=      5-min Rain = 0
KVA1 311745Z 19003KT 23/00 A3024 RMK A01 T02270004  RH  023%=      5-min Rain = 0
KVA1 311746Z 19003KT 23/00 A3024 RMK A01 T02270002  RH  022%=      5-min Rain = 0
KVA1 311747Z 19004KT 23/00 A3024 RMK A01 T02270002  RH  023%=      5-min Rain = 0
KVA1 311748Z 25003KT 23/00 A3024 RMK A01 T02280003  RH  022%=      5-min Rain = 0
KVA1 311749Z 24003KT 23/00 A3024 RMK A01 T02300003  RH  022%=      5-min Rain = 0
KVA1 311750Z 22002KT 23/00 A3024 RMK A01 T02310003  RH  022%=      5-min Rain = 0
KVA1 311751Z 32001KT 23/00 A3024 RMK A01 T02330004  RH  022%=      5-min Rain = 0
KVA1 311752Z 17003KT 24/00 A3024 RMK A01 T02350004  RH  022%=      5-min Rain = 0
KVA1 311753Z 20005KT 24/00 A3024 RMK A01 T02360003  RH  021%=      5-min Rain = 0
KVA1 311754Z 23003KT 24/00 A3024 RMK A01 T02350003  RH  021%=      5-min Rain = 0
KVA1 311755Z 19004KT 23/00 A3024 RMK A01 T02340003  RH  022%=      5-min Rain = 0
KVA1 311756Z 19005KT 24/00 A3023 RMK A01 T02350003  RH  022%=      5-min Rain = 0
KVA1 311757Z 21005KT 24/01 A3023 RMK A01 T02370005  RH  022%=      5-min Rain = 0
KVA1 311758Z 24006KT 24/01 A3023 RMK A01 T02400005  RH  021%=      5-min Rain = 0
KVA1 311759Z 25006KT 24/00 A3023 RMK A01 T02400004  RH  021%=      5-min Rain = 0
KVA1 311800Z 21008KT 24/00 A3023 RMK A01 T02400002  RH  021%=      5-min Rain = 0
KVA1 311801Z 22007KT 24/00 A3023 RMK A01 T02410002  RH  021%=      5-min Rain = 0
KVA1 311802Z 25008KT 24/00 A3023 RMK A01 T02400002  RH  021%=      5-min Rain = 0
KVA1 311803Z 27008KT 24/00 A3023 RMK A01 T02400001  RH  021%=      5-min Rain = 0
KVA1 311804Z 27006KT 24/M00 A3023 RMK A01 T02361001  RH  021%=      5-min Rain = 0
KVA1 311805Z 27004KT 23/00 A3023 RMK A01 T023400-0  RH  021%=      5-min Rain = 0
KVA1 311806Z 27004KT 23/00 A3023 RMK A01 T02340001  RH  021%=      5-min Rain = 0
KVA1 311807Z 30004KT 24/00 A3023 RMK A01 T02380004  RH  021%=      5-min Rain = 0
KVA1 311808Z 32003KT 24/00 A3023 RMK A01 T02400001  RH  021%=      5-min Rain = 0
KVA1 311809Z 30003KT 24/00 A3023 RMK A01 T023800-0  RH  021%=      5-min Rain = 0
KVA1 311810Z 29004KT 24/00 A3023 RMK A01 T02380002  RH  021%=      5-min Rain = 0
KVA1 311811Z 29003KT 24/00 A3023 RMK A01 T02400001  RH  021%=      5-min Rain = 0
KVA1 311812Z 24001KT 24/00 A3023 RMK A01 T02410002  RH  021%=      5-min Rain = 0
KVA1 311813Z 24005KT 24/00 A3023 RMK A01 T02440003  RH  020%=      5-min Rain = 0
KVA1 311814Z 23007KT 25/00 A3023 RMK A01 T02450003  RH  020%=      5-min Rain = 0
KVA1 311815Z 23005KT 24/00 A3023 RMK A01 T02440001  RH  020%=      5-min Rain = 0
KVA1 311816Z 23005KT 24/00 A3023 RMK A01 T02410000  RH  020%=      5-min Rain = 0
KVA1 311817Z 21006KT 24/00 A3023 RMK A01 T02400001  RH  021%=      5-min Rain = 0
KVA1 311818Z 23007KT 24/00 A3023 RMK A01 T02400001  RH  021%=      5-min Rain = 0
KVA1 311819Z 23004KT 24/00 A3023 RMK A01 T02390001  RH  021%=      5-min Rain = 0
KVA1 311820Z 23005KT 24/00 A3023 RMK A01 T02380000  RH  021%=      5-min Rain = 0
KVA1 311821Z 23003KT 24/00 A3023 RMK A01 T02370000  RH  021%=      5-min Rain = 0
KVA1 311822Z 23002KT 24/00 A3023 RMK A01 T02370000  RH  021%=      5-min Rain = 0
KVA1 311823Z 27004KT 24/00 A3023 RMK A01 T02380001  RH  021%=      5-min Rain = 0
KVA1 311824Z 27002KT 24/00 A3023 RMK A01 T02390000  RH  021%=      5-min Rain = 0
KVA1 311825Z 26003KT 24/00 A3023 RMK A01 T023900-0  RH  021%=      5-min Rain = 0
KVA1 311826Z 27001KT 24/00 A3023 RMK A01 T023900-0  RH  021%=      5-min Rain = 0
KVA1 311827Z 31004KT 24/00 A3022 RMK A01 T02410001  RH  021%=      5-min Rain = 0
KVA1 311828Z 35002KT 24/00 A3022 RMK A01 T02410000  RH  020%=      5-min Rain = 0
KVA1 311829Z 32002KT 24/00 A3022 RMK A01 T02410001  RH  021%=      5-min Rain = 0
KVA1 311830Z 31001KT 24/00 A3022 RMK A01 T02410001  RH  020%=      5-min Rain = 0
KVA1 311831Z 00000KT 24/00 A3022 RMK A01 T02420001  RH  020%=      5-min Rain = 0
KVA1 311832Z 35001KT 24/00 A3022 RMK A01 T02440002  RH  020%=      5-min Rain = 0
KVA1 311833Z 30002KT 25/00 A3022 RMK A01 T02450002  RH  020%=      5-min Rain = 0
KVA1 311834Z 24003KT 25/00 A3022 RMK A01 T02460000  RH  020%=      5-min Rain = 0
KVA1 311835Z 28003KT 25/M00 A3022 RMK A01 T02471001  RH  020%=      5-min Rain = 0
KVA1 311836Z 27005KT 25/M00 A3022 RMK A01 T02471002  RH  019%=      5-min Rain = 0
KVA1 311837Z 26003KT 25/M00 A3022 RMK A01 T02471003  RH  019%=      5-min Rain = 0
KVA1 311838Z 28003KT 25/M00 A3022 RMK A01 T02471002  RH  019%=      5-min Rain = 0
KVA1 311839Z 27006KT 25/M00 A3022 RMK A01 T02501001  RH  019%=      5-min Rain = 0
KVA1 311840Z 29005KT 25/M00 A3022 RMK A01 T02511003  RH  019%=      5-min Rain = 0
KVA1 311841Z 28008KT 25/M00 A3022 RMK A01 T02531002  RH  019%=      5-min Rain = 0
KVA1 311842Z 28005KT 26/M00 A3022 RMK A01 T02551003  RH  018%=      5-min Rain = 0
KVA1 311843Z 27004KT 25/M01 A3022 RMK A01 T02531007  RH  018%=      5-min Rain = 0
KVA1 311844Z 29003KT 25/M01 A3022 RMK A01 T02511007  RH  018%=      5-min Rain = 0
KVA1 311845Z 02003KT 25/M00 A3022 RMK A01 T02511004  RH  019%=      5-min Rain = 0
KVA1 311846Z 02004KT 25/00 A3021 RMK A01 T02510003  RH  020%=      5-min Rain = 0
KVA1 311847Z 02002KT 25/00 A3021 RMK A01 T02500003  RH  020%=      5-min Rain = 0
KVA1 311848Z 26001KT 25/00 A3021 RMK A01 T02490002  RH  020%=      5-min Rain = 0
KVA1 311849Z 25001KT 25/00 A3021 RMK A01 T02490000  RH  020%=      5-min Rain = 0
KVA1 311850Z 32000KT 25/M00 A3021 RMK A01 T02501001  RH  019%=      5-min Rain = 0
KVA1 311851Z 33005KT 25/00 A3021 RMK A01 T02520000  RH  019%=      5-min Rain = 0
KVA1 311852Z 35006KT 25/00 A3021 RMK A01 T02540002  RH  019%=      5-min Rain = 0
KVA1 311853Z 00004KT 26/00 A3021 RMK A01 T02560004  RH  019%=      5-min Rain = 0
KVA1 311854Z 35005KT 26/00 A3021 RMK A01 T02560004  RH  019%=      5-min Rain = 0
KVA1 311855Z 36005KT 26/00 A3021 RMK A01 T02560004  RH  019%=      5-min Rain = 0
KVA1 311856Z 02005KT 25/00 A3021 RMK A01 T02530001  RH  019%=      5-min Rain = 0
KVA1 311857Z 01004KT 25/00 A3021 RMK A01 T02480001  RH  020%=      5-min Rain = 0
KVA1 311858Z 00005KT 25/00 A3021 RMK A01 T02470002  RH  020%=      5-min Rain = 0
KVA1 311859Z 01004KT 25/00 A3021 RMK A01 T02500003  RH  020%=      5-min Rain = 0
KVA1 311900Z 01007KT 25/00 A3021 RMK A01 T02530004  RH  019%=      5-min Rain = 0
KVA1 311901Z 02008KT 25/00 A3021 RMK A01 T02530004  RH  019%=      5-min Rain = 0
KVA1 311902Z 01007KT 25/00 A3021 RMK A01 T02510003  RH  020%=      5-min Rain = 0
KVA1 311903Z 03007KT 25/00 A3021 RMK A01 T02490002  RH  020%=      5-min Rain = 0
KVA1 311904Z 03007KT 25/00 A3021 RMK A01 T02480003  RH  020%=      5-min Rain = 0
KVA1 311905Z 03005KT 25/00 A3021 RMK A01 T02490003  RH  020%=      5-min Rain = 0
KVA1 311906Z 01007KT 25/00 A3021 RMK A01 T02500004  RH  020%=      5-min Rain = 0
KVA1 311907Z 04007KT 25/00 A3021 RMK A01 T02500004  RH  020%=      5-min Rain = 0
KVA1 311908Z 03007KT 25/00 A3021 RMK A01 T02490003  RH  020%=      5-min Rain = 0
KVA1 311909Z 04005KT 25/00 A3021 RMK A01 T02470003  RH  020%=      5-min Rain = 0
KVA1 311910Z 04005KT 25/00 A3021 RMK A01 T02470003  RH  020%=      5-min Rain = 0
KVA1 311911Z 03007KT 25/00 A3021 RMK A01 T02460003  RH  020%=      5-min Rain = 0
KVA1 311912Z 04005KT 25/00 A3021 RMK A01 T02450003  RH  020%=      5-min Rain = 0
KVA1 311913Z 02004KT 25/00 A3021 RMK A01 T02460002  RH  020%=      5-min Rain = 0
KVA1 311914Z 04005KT 25/00 A3021 RMK A01 T02480002  RH  020%=      5-min Rain = 0
KVA1 311915Z 06005KT 25/00 A3021 RMK A01 T02490004  RH  020%=      5-min Rain = 0
KVA1 311916Z 05004KT 25/00 A3021 RMK A01 T02510003  RH  020%=      5-min Rain = 0
KVA1 311917Z 03005KT 25/00 A3021 RMK A01 T02510002  RH  020%=      5-min Rain = 0
KVA1 311918Z 03005KT 25/00 A3021 RMK A01 T02510003  RH  020%=      5-min Rain = 0
KVA1 311919Z 03005KT 25/00 A3021 RMK A01 T02500003  RH  020%=      5-min Rain = 0
KVA1 311920Z 05003KT 25/00 A302 RMK A01 T02490002  RH  020%=      5-min Rain = 0
KVA1 311921Z 09002KT 25/00 A302 RMK A01 T02480002  RH  020%=      5-min Rain = 0
KVA1 311922Z 06003KT 25/00 A302 RMK A01 T02490002  RH  020%=      5-min Rain = 0
KVA1 311923Z 09003KT 25/00 A302 RMK A01 T02490001  RH  020%=      5-min Rain = 0
KVA1 311924Z 06004KT 25/00 A302 RMK A01 T02500003  RH  020%=      5-min Rain = 0
KVA1 311925Z 03005KT 25/00 A302 RMK A01 T02510001  RH  019%=      5-min Rain = 0
KVA1 311926Z 05005KT 25/00 A302 RMK A01 T02490002  RH  020%=      5-min Rain = 0
KVA1 311927Z 05005KT 25/00 A302 RMK A01 T02500002  RH  020%=      5-min Rain = 0
KVA1 311928Z 06003KT 25/00 A302 RMK A01 T02490002  RH  020%=      5-min Rain = 0
KVA1 311929Z 08002KT 25/00 A302 RMK A01 T02480002  RH  020%=      5-min Rain = 0
KVA1 311930Z 04004KT 25/00 A302 RMK A01 T02480002  RH  020%=      5-min Rain = 0
KVA1 311931Z 04004KT 25/00 A302 RMK A01 T02510001  RH  019%=      5-min Rain = 0
KVA1 311932Z 05005KT 25/00 A302 RMK A01 T02530002  RH  019%=      5-min Rain = 0
KVA1 311933Z 08004KT 26/00 A302 RMK A01 T02550000  RH  019%=      5-min Rain = 0
KVA1 311934Z 09004KT 25/00 A302 RMK A01 T02540001  RH  019%=      5-min Rain = 0
KVA1 311935Z 09005KT 25/00 A302 RMK A01 T02540000  RH  019%=      5-min Rain = 0
KVA1 311936Z 11004KT 25/00 A302 RMK A01 T02540000  RH  019%=      5-min Rain = 0
KVA1 311937Z 10003KT 26/00 A302 RMK A01 T02560001  RH  019%=      5-min Rain = 0
KVA1 311938Z 08004KT 26/00 A302 RMK A01 T02580001  RH  019%=      5-min Rain = 0
KVA1 311939Z 04002KT 26/00 A302 RMK A01 T02600001  RH  018%=      5-min Rain = 0
KVA1 311940Z 05004KT 26/00 A302 RMK A01 T02620001  RH  018%=      5-min Rain = 0
KVA1 311941Z 06005KT 26/00 A3019 RMK A01 T02620002  RH  018%=      5-min Rain = 0
KVA1 311942Z 04003KT 26/00 A3019 RMK A01 T02620001  RH  018%=      5-min Rain = 0
KVA1 311943Z 06004KT 26/00 A3019 RMK A01 T02620002  RH  018%=      5-min Rain = 0
KVA1 311944Z 04005KT 26/M00 A3019 RMK A01 T02621001  RH  018%=      5-min Rain = 0
KVA1 311945Z 04005KT 26/00 A3019 RMK A01 T026300-0  RH  018%=      5-min Rain = 0
KVA1 311946Z 08003KT 27/00 A3019 RMK A01 T02650002  RH  018%=      5-min Rain = 0
KVA1 311947Z 07005KT 27/00 A3019 RMK A01 T02650003  RH  018%=      5-min Rain = 0
KVA1 311948Z 06005KT 27/00 A3019 RMK A01 T02650001  RH  018%=      5-min Rain = 0
KVA1 311949Z 11003KT 27/00 A3019 RMK A01 T02650001  RH  018%=      5-min Rain = 0
KVA1 311950Z 08004KT 27/00 A3019 RMK A01 T02660001  RH  018%=      5-min Rain = 0
KVA1 311951Z 07004KT 27/00 A3019 RMK A01 T026600-0  RH  017%=      5-min Rain = 0
KVA1 311952Z 09004KT 27/M00 A3019 RMK A01 T02671001  RH  017%=      5-min Rain = 0
KVA1 311953Z 08003KT 27/M00 A3019 RMK A01 T02681001  RH  017%=      5-min Rain = 0
KVA1 311954Z 05003KT 27/M00 A3019 RMK A01 T02691003  RH  017%=      5-min Rain = 0
KVA1 311955Z 10003KT 27/M00 A3019 RMK A01 T02691003  RH  017%=      5-min Rain = 0
KVA1 311956Z 02001KT 27/M00 A3019 RMK A01 T02681004  RH  017%=      5-min Rain = 0
KVA1 311957Z 31002KT 27/M01 A3019 RMK A01 T02701008  RH  016%=      5-min Rain = 0
KVA1 311958Z 32003KT 27/M01 A3019 RMK A01 T02701012  RH  016%=      5-min Rain = 0
KVA1 311959Z 26002KT 27/M01 A3019 RMK A01 T02671013  RH  016%=      5-min Rain = 0
KVA1 312000Z 32002KT 27/M01 A3019 RMK A01 T02671012  RH  016%=      5-min Rain = 0
KVA1 312001Z 33003KT 27/M01 A3019 RMK A01 T02681011  RH  016%=      5-min Rain = 0
KVA1 312002Z 31002KT 27/M01 A3019 RMK A01 T02681010  RH  016%=      5-min Rain = 0
KVA1 312003Z 32001KT 27/M01 A3019 RMK A01 T02691011  RH  016%=      5-min Rain = 0
KVA1 312004Z 34001KT 27/M01 A3019 RMK A01 T02691011  RH  016%=      5-min Rain = 0
KVA1 312005Z 36001KT 27/M01 A3019 RMK A01 T02701008  RH  016%=      5-min Rain = 0
KVA1 312006Z 26003KT 27/M01 A3019 RMK A01 T02711010  RH  016%=      5-min Rain = 0
KVA1 312007Z 27002KT 27/M02 A3018 RMK A01 T02731016  RH  015%=      5-min Rain = 0
KVA1 312008Z 28000KT 27/M02 A3018 RMK A01 T02741017  RH  015%=      5-min Rain = 0
KVA1 312009Z 27002KT 28/M02 A3018 RMK A01 T02751017  RH  015%=      5-min Rain = 0
KVA1 312010Z 19003G8KT 28/M02 A3018 RMK A01 T02751018  RH  015%=      5-min Rain = 0
KVA1 312011Z 22007KT 28/M02 A3018 RMK A01 T02771017  RH  015%=      5-min Rain = 0
KVA1 312012Z 22006KT 28/M02 A3018 RMK A01 T02781017  RH  014%=      5-min Rain = 0
KVA1 312013Z 23008KT 28/M02 A3018 RMK A01 T02781018  RH  014%=      5-min Rain = 0
KVA1 312014Z 21007KT 28/M02 A3018 RMK A01 T02771018  RH  014%=      5-min Rain = 0
KVA1 312015Z 20008KT 28/M02 A3018 RMK A01 T02761016  RH  015%=      5-min Rain = 0
KVA1 312016Z 19007KT 28/M02 A3018 RMK A01 T02751016  RH  015%=      5-min Rain = 0
KVA1 312017Z 17006KT 27/M02 A3018 RMK A01 T02731018  RH  015%=      5-min Rain = 0
KVA1 312018Z 17006KT 27/M02 A3018 RMK A01 T02721017  RH  015%=      5-min Rain = 0
KVA1 312019Z 25004KT 27/M02 A3018 RMK A01 T02731015  RH  015%=      5-min Rain = 0
KVA1 312020Z 25006KT 27/M01 A3018 RMK A01 T02741012  RH  015%=      5-min Rain = 0
KVA1 312021Z 22006KT 28/M01 A3018 RMK A01 T02751013  RH  015%=      5-min Rain = 0
KVA1 312022Z 04006KT 28/M01 A3018 RMK A01 T02751013  RH  015%=      5-min Rain = 0
KVA1 312023Z 03012G17KT 28/M01 A3018 RMK A01 T02751007  RH  016%=      5-min Rain = 0
KVA1 312024Z 02008KT 28/M00 A3018 RMK A01 T02751004  RH  016%=      5-min Rain = 0
KVA1 312025Z 01008KT 28/M00 A3018 RMK A01 T02751002  RH  016%=      5-min Rain = 0
KVA1 312026Z 04007KT 27/M00 A3018 RMK A01 T02741001  RH  017%=      5-min Rain = 0
KVA1 312027Z 03007KT 28/M00 A3018 RMK A01 T02751001  RH  017%=      5-min Rain = 0
KVA1 312028Z 00008KT 28/M00 A3018 RMK A01 T02751002  RH  016%=      5-min Rain = 0
KVA1 312029Z 01007KT 27/M00 A3018 RMK A01 T02721004  RH  016%=      5-min Rain = 0
KVA1 312030Z 03007KT 27/M01 A3018 RMK A01 T02701006  RH  016%=      5-min Rain = 0
KVA1 312031Z 01007KT 27/M01 A3018 RMK A01 T02701007  RH  016%=      5-min Rain = 0
KVA1 312032Z 01004KT 27/M01 A3018 RMK A01 T02721010  RH  016%=      5-min Rain = 0
KVA1 312033Z 02003KT 27/M01 A3018 RMK A01 T02721011  RH  016%=      5-min Rain = 0
KVA1 312034Z 03007KT 27/M01 A3018 RMK A01 T02721008  RH  016%=      5-min Rain = 0
KVA1 312035Z 02009KT 28/M00 A3018 RMK A01 T02751004  RH  016%=      5-min Rain = 0
KVA1 312036Z 00007KT 27/M01 A3018 RMK A01 T02741006  RH  016%=      5-min Rain = 0
KVA1 312037Z 02008KT 27/M01 A3018 RMK A01 T02721008  RH  016%=      5-min Rain = 0
KVA1 312038Z 03006KT 27/M01 A3018 RMK A01 T02691007  RH  016%=      5-min Rain = 0
KVA1 312039Z 01007KT 27/M01 A3018 RMK A01 T02691006  RH  017%=      5-min Rain = 0
KVA1 312040Z 02009KT 27/M01 A3018 RMK A01 T02701005  RH  017%=      5-min Rain = 0
KVA1 312041Z 03008KT 27/M01 A3018 RMK A01 T02711005  RH  016%=      5-min Rain = 0
KVA1 312042Z 02008KT 27/M01 A3018 RMK A01 T02721005  RH  016%=      5-min Rain = 0
KVA1 312043Z 02007KT 27/M00 A3018 RMK A01 T02711004  RH  016%=      5-min Rain = 0
KVA1 312044Z 04007KT 27/M00 A3018 RMK A01 T02711004  RH  017%=      5-min Rain = 0
KVA1 312045Z 04010KT 27/M00 A3018 RMK A01 T02701004  RH  017%=      5-min Rain = 0
KVA1 312046Z 05010KT 27/M00 A3018 RMK A01 T02691004  RH  017%=      5-min Rain = 0
KVA1 312047Z 06008KT 27/M00 A3018 RMK A01 T02681004  RH  017%=      5-min Rain = 0
KVA1 312048Z 03008KT 27/M00 A3018 RMK A01 T02691004  RH  017%=      5-min Rain = 0
KVA1 312049Z 04009KT 27/M01 A3018 RMK A01 T02701006  RH  016%=      5-min Rain = 0
KVA1 312050Z 04008KT 27/M01 A3018 RMK A01 T02691005  RH  017%=      5-min Rain = 0
KVA1 312051Z 04009KT 27/M00 A3018 RMK A01 T02701003  RH  017%=      5-min Rain = 0
KVA1 312052Z 02010KT 27/M00 A3018 RMK A01 T02721002  RH  017%=      5-min Rain = 0
KVA1 312053Z 03010KT 27/M00 A3018 RMK A01 T02711002  RH  017%=      5-min Rain = 0
KVA1 312054Z 04009KT 27/M00 A3018 RMK A01 T02681003  RH  017%=      5-min Rain = 0
KVA1 312055Z 04008KT 27/M00 A3018 RMK A01 T02661004  RH  017%=      5-min Rain = 0
KVA1 312056Z 05008KT 27/M00 A3018 RMK A01 T02681004  RH  017%=      5-min Rain = 0
KVA1 312057Z 04006KT 27/M00 A3018 RMK A01 T02701003  RH  017%=      5-min Rain = 0
KVA1 312058Z 05008KT 27/M00 A3018 RMK A01 T02701002  RH  017%=      5-min Rain = 0
KVA1 312059Z 03006KT 27/M00 A3018 RMK A01 T02681002  RH  017%=      5-min Rain = 0
KVA1 312100Z 03008KT 27/M00 A3018 RMK A01 T02671002  RH  017%=      5-min Rain = 0
KVA1 312101Z 04007KT 27/M00 A3018 RMK A01 T02671003  RH  017%=      5-min Rain = 0
KVA1 312102Z 04007KT 27/M00 A3018 RMK A01 T02661002  RH  017%=      5-min Rain = 0
KVA1 312103Z 03007KT 27/M00 A3018 RMK A01 T02681002  RH  017%=      5-min Rain = 0
KVA1 312104Z 03006KT 27/M00 A3018 RMK A01 T02691004  RH  017%=      5-min Rain = 0
KVA1 312105Z 02005KT 27/M01 A3018 RMK A01 T02701005  RH  016%=      5-min Rain = 0
KVA1 312106Z 04007KT 27/M00 A3018 RMK A01 T02711004  RH  017%=      5-min Rain = 0
KVA1 312107Z 05009KT 27/M00 A3018 RMK A01 T02711001  RH  017%=      5-min Rain = 0
KVA1 312108Z 04009KT 27/M00 A3018 RMK A01 T02691002  RH  017%=      5-min Rain = 0
KVA1 312109Z 05008KT 27/M00 A3018 RMK A01 T02691001  RH  017%=      5-min Rain = 0
KVA1 312110Z 06008KT 27/M00 A3018 RMK A01 T02701001  RH  017%=      5-min Rain = 0
KVA1 312111Z 05007KT 27/M00 A3018 RMK A01 T02701001  RH  017%=      5-min Rain = 0
KVA1 312112Z 06007KT 27/M00 A3018 RMK A01 T02701001  RH  017%=      5-min Rain = 0
KVA1 312113Z 06007KT 27/M00 A3018 RMK A01 T02711002  RH  017%=      5-min Rain = 0
KVA1 312114Z 04006KT 27/M00 A3018 RMK A01 T02701002  RH  017%=      5-min Rain = 0
KVA1 312115Z 04006KT 27/M00 A3018 RMK A01 T02691002  RH  017%=      5-min Rain = 0
KVA1 312116Z 03007KT 27/M00 A3018 RMK A01 T02681001  RH  017%=      5-min Rain = 0
KVA1 312117Z 03009KT 27/M00 A3018 RMK A01 T02691001  RH  017%=      5-min Rain = 0
KVA1 312118Z 02006KT 27/M00 A3018 RMK A01 T02691002  RH  017%=      5-min Rain = 0
KVA1 312119Z 03006KT 27/M00 A3018 RMK A01 T02681002  RH  017%=      5-min Rain = 0
KVA1 312120Z 04006KT 27/M00 A3018 RMK A01 T02671003  RH  017%=      5-min Rain = 0
KVA1 312121Z 03006KT 27/M00 A3018 RMK A01 T02661003  RH  017%=      5-min Rain = 0
KVA1 312122Z 03005KT 27/M00 A3018 RMK A01 T02671003  RH  017%=      5-min Rain = 0
KVA1 312123Z 04005KT 27/M00 A3018 RMK A01 T02691003  RH  017%=      5-min Rain = 0
KVA1 312124Z 04005KT 27/M00 A3018 RMK A01 T02711003  RH  017%=      5-min Rain = 0
KVA1 312125Z 04004KT 27/M00 A3018 RMK A01 T02721004  RH  017%=      5-min Rain = 0
KVA1 312126Z 05007KT 27/M00 A3018 RMK A01 T02721003  RH  017%=      5-min Rain = 0
KVA1 312127Z 05006KT 27/M00 A3018 RMK A01 T02721003  RH  017%=      5-min Rain = 0
KVA1 312128Z 05007KT 27/M00 A3018 RMK A01 T02711002  RH  017%=      5-min Rain = 0
KVA1 312129Z 05007KT 27/M00 A3018 RMK A01 T02701001  RH  017%=      5-min Rain = 0
KVA1 312130Z 04008KT 27/00 A3018 RMK A01 T027100-0  RH  017%=      5-min Rain = 0
KVA1 312131Z 02009KT 27/M00 A3018 RMK A01 T02701002  RH  017%=      5-min Rain = 0
KVA1 312132Z 04008KT 27/M00 A3018 RMK A01 T02691002  RH  017%=      5-min Rain = 0
KVA1 312133Z 04007KT 27/M00 A3018 RMK A01 T02691003  RH  017%=      5-min Rain = 0
KVA1 312134Z 03007KT 27/M00 A3018 RMK A01 T02691002  RH  017%=      5-min Rain = 0
KVA1 312135Z 04008KT 27/M00 A3018 RMK A01 T02691001  RH  017%=      5-min Rain = 0
KVA1 312136Z 04007KT 27/M00 A3018 RMK A01 T02701002  RH  017%=      5-min Rain = 0
KVA1 312137Z 02007KT 27/M00 A3018 RMK A01 T02701002  RH  017%=      5-min Rain = 0
KVA1 312138Z 03006KT 27/M00 A3018 RMK A01 T02701002  RH  017%=      5-min Rain = 0
KVA1 312139Z 05007KT 27/M00 A3018 RMK A01 T02691002  RH  017%=      5-min Rain = 0
KVA1 312140Z 02006KT 27/M00 A3018 RMK A01 T02681003  RH  017%=      5-min Rain = 0
KVA1 312141Z 01007KT 27/M00 A3018 RMK A01 T02681003  RH  017%=      5-min Rain = 0
KVA1 312142Z 02008KT 27/M00 A3018 RMK A01 T02691004  RH  017%=      5-min Rain = 0
KVA1 312143Z 03008KT 27/M00 A3018 RMK A01 T02701004  RH  017%=      5-min Rain = 0
KVA1 312144Z 04009KT 27/M01 A3018 RMK A01 T02711005  RH  016%=      5-min Rain = 0
KVA1 312145Z 03006KT 27/M01 A3018 RMK A01 T02711007  RH  016%=      5-min Rain = 0
KVA1 312146Z 05008KT 27/M01 A3018 RMK A01 T02701006  RH  016%=      5-min Rain = 0
KVA1 312147Z 04005KT 27/M01 A3018 RMK A01 T02681006  RH  017%=      5-min Rain = 0
KVA1 312148Z 04006KT 27/M01 A3018 RMK A01 T02681005  RH  017%=      5-min Rain = 0
KVA1 312149Z 02007KT 27/M01 A3018 RMK A01 T02691006  RH  017%=      5-min Rain = 0
KVA1 312150Z 03007KT 27/M01 A3018 RMK A01 T02701008  RH  016%=      5-min Rain = 0
KVA1 312151Z 05006KT 27/M01 A3018 RMK A01 T02701007  RH  016%=      5-min Rain = 0
KVA1 312152Z 05006KT 27/M00 A3018 RMK A01 T02691004  RH  017%=      5-min Rain = 0
KVA1 312153Z 05006KT 27/M00 A3018 RMK A01 T02681004  RH  017%=      5-min Rain = 0
KVA1 312154Z 04006KT 27/M00 A3018 RMK A01 T02691003  RH  017%=      5-min Rain = 0
KVA1 312155Z 04006KT 27/M00 A3018 RMK A01 T02711004  RH  017%=      5-min Rain = 0
KVA1 312156Z 04005KT 27/M01 A3018 RMK A01 T02711005  RH  016%=      5-min Rain = 0
KVA1 312157Z 05006KT 27/M00 A3018 RMK A01 T02711004  RH  017%=      5-min Rain = 0
KVA1 312158Z 05006KT 27/M01 A3018 RMK A01 T02711006  RH  016%=      5-min Rain = 0
KVA1 312159Z 03006KT 27/M01 A3018 RMK A01 T02701007  RH  016%=      5-min Rain = 0
KVA1 312200Z 07004KT 27/M01 A3018 RMK A01 T02691008  RH  016%=      5-min Rain = 0
KVA1 312201Z 05004KT 27/M01 A3018 RMK A01 T02691007  RH  016%=      5-min Rain = 0
KVA1 312202Z 04006KT 27/M01 A3018 RMK A01 T02681008  RH  016%=      5-min Rain = 0
KVA1 312203Z 04006KT 27/M01 A3018 RMK A01 T02681007  RH  016%=      5-min Rain = 0
KVA1 312204Z 04006KT 27/M01 A3018 RMK A01 T02671008  RH  016%=      5-min Rain = 0
KVA1 312205Z 04006KT 27/M01 A3018 RMK A01 T02671007  RH  016%=      5-min Rain = 0
KVA1 312206Z 05006KT 27/M01 A3018 RMK A01 T02671008  RH  016%=      5-min Rain = 0
KVA1 312207Z 05005KT 27/M01 A3018 RMK A01 T02671008  RH  016%=      5-min Rain = 0
KVA1 312208Z 06005KT 27/M01 A3018 RMK A01 T02661008  RH  017%=      5-min Rain = 0
KVA1 312209Z 06006KT 27/M01 A3018 RMK A01 T02661008  RH  017%=      5-min Rain = 0
KVA1 312210Z 05007KT 27/M01 A3018 RMK A01 T02651008  RH  017%=      5-min Rain = 0
KVA1 312211Z 06007KT 26/M01 A3018 RMK A01 T02641008  RH  017%=      5-min Rain = 0
KVA1 312212Z 05006KT 26/M01 A3018 RMK A01 T02631007  RH  017%=      5-min Rain = 0
KVA1 312213Z 05006KT 26/M01 A3018 RMK A01 T02641007  RH  017%=      5-min Rain = 0
KVA1 312214Z 05007KT 26/M01 A3018 RMK A01 T02641008  RH  017%=      5-min Rain = 0
KVA1 312215Z 04007KT 26/M01 A3018 RMK A01 T02641009  RH  017%=      5-min Rain = 0
KVA1 312216Z 06007KT 26/M01 A3018 RMK A01 T02641008  RH  017%=      5-min Rain = 0
KVA1 312217Z 04005KT 26/M01 A3018 RMK A01 T02641007  RH  017%=      5-min Rain = 0
KVA1 312218Z 05005KT 26/M01 A3018 RMK A01 T02631008  RH  017%=      5-min Rain = 0
KVA1 312219Z 04003KT 26/M01 A3018 RMK A01 T02641008  RH  017%=      5-min Rain = 0
KVA1 312220Z 03005KT 26/M01 A3018 RMK A01 T02641007  RH  017%=      5-min Rain = 0
KVA1 312221Z 03007KT 26/M01 A3018 RMK A01 T02641006  RH  017%=      5-min Rain = 0
KVA1 312222Z 03006KT 27/M01 A3018 RMK A01 T02651006  RH  017%=      5-min Rain = 0
KVA1 312223Z 03007KT 27/M01 A3018 RMK A01 T02651006  RH  017%=      5-min Rain = 0
KVA1 312224Z 04008KT 27/M01 A3018 RMK A01 T02651006  RH  017%=      5-min Rain = 0
KVA1 312225Z 06009KT 27/M01 A3018 RMK A01 T02651006  RH  017%=      5-min Rain = 0
KVA1 312226Z 06007KT 27/M01 A3018 RMK A01 T02651007  RH  017%=      5-min Rain = 0
KVA1 312227Z 07005KT 27/M01 A3018 RMK A01 T02651007  RH  017%=      5-min Rain = 0
KVA1 312228Z 05005KT 27/M01 A3018 RMK A01 T02651006  RH  017%=      5-min Rain = 0
KVA1 312229Z 06007KT 27/M01 A3018 RMK A01 T02661006  RH  017%=      5-min Rain = 0
KVA1 312230Z 05007KT 27/M01 A3018 RMK A01 T02661006  RH  017%=      5-min Rain = 0
KVA1 312231Z 05007KT 27/M01 A3019 RMK A01 T02661007  RH  017%=      5-min Rain = 0
KVA1 312232Z 05007KT 27/M01 A3019 RMK A01 T02661007  RH  017%=      5-min Rain = 0
KVA1 312233Z 04006KT 27/M01 A3019 RMK A01 T02661007  RH  017%=      5-min Rain = 0
KVA1 312234Z 03006KT 27/M01 A3019 RMK A01 T02661007  RH  017%=      5-min Rain = 0
KVA1 312235Z 03006KT 27/M01 A3019 RMK A01 T02651007  RH  017%=      5-min Rain = 0
KVA1 312236Z 02006KT 26/M01 A3019 RMK A01 T02641008  RH  017%=      5-min Rain = 0
KVA1 312237Z 03006KT 26/M01 A3019 RMK A01 T02631008  RH  017%=      5-min Rain = 0
KVA1 312238Z 04006KT 26/M01 A3019 RMK A01 T02641008  RH  017%=      5-min Rain = 0
KVA1 312239Z 03006KT 26/M01 A3019 RMK A01 T02641008  RH  017%=      5-min Rain = 0
KVA1 312240Z 03007KT 26/M01 A3019 RMK A01 T02631008  RH  017%=      5-min Rain = 0
KVA1 312241Z 03008KT 26/M01 A3019 RMK A01 T02631008  RH  017%=      5-min Rain = 0
KVA1 312242Z 04008KT 26/M01 A3019 RMK A01 T02641007  RH  017%=      5-min Rain = 0
KVA1 312243Z 03007KT 26/M01 A3019 RMK A01 T02641008  RH  017%=      5-min Rain = 0
KVA1 312244Z 02008KT 26/M01 A3019 RMK A01 T02631008  RH  017%=      5-min Rain = 0
KVA1 312245Z 02006KT 26/M01 A3019 RMK A01 T02631007  RH  017%=      5-min Rain = 0
KVA1 312246Z 02007KT 26/M01 A3019 RMK A01 T02631008  RH  017%=      5-min Rain = 0
KVA1 312247Z 03008KT 26/M01 A3019 RMK A01 T02631007  RH  017%=      5-min Rain = 0
KVA1 312248Z 03007KT 26/M01 A3019 RMK A01 T02641007  RH  017%=      5-min Rain = 0
KVA1 312249Z 02008KT 26/M01 A3019 RMK A01 T02631007  RH  017%=      5-min Rain = 0
KVA1 312250Z 02007KT 26/M01 A3019 RMK A01 T02631007  RH  017%=      5-min Rain = 0
KVA1 312251Z 01007KT 26/M01 A3019 RMK A01 T02621007  RH  017%=      5-min Rain = 0
KVA1 312252Z 02008KT 26/M01 A3019 RMK A01 T02621007  RH  017%=      5-min Rain = 0
KVA1 312253Z 03007KT 26/M01 A3019 RMK A01 T02621007  RH  017%=      5-min Rain = 0
KVA1 312254Z 02005KT 26/M01 A3019 RMK A01 T02611007  RH  017%=      5-min Rain = 0
KVA1 312255Z 02007KT 26/M01 A3019 RMK A01 T02621007  RH  017%=      5-min Rain = 0
KVA1 312256Z 02007KT 26/M01 A3019 RMK A01 T02621007  RH  017%=      5-min Rain = 0
KVA1 312257Z 01007KT 26/M01 A3019 RMK A01 T02621007  RH  017%=      5-min Rain = 0
KVA1 312258Z 01007KT 26/M01 A3019 RMK A01 T02611007  RH  017%=      5-min Rain = 0
KVA1 312259Z 01007KT 26/M01 A3019 RMK A01 T02601008  RH  017%=      5-min Rain = 0
KVA1 312300Z 03005KT 26/M01 A3019 RMK A01 T02591008  RH  017%=      5-min Rain = 0
KVA1 312301Z 02007KT 26/M01 A3019 RMK A01 T02591008  RH  017%=      5-min Rain = 0
KVA1 312302Z 03006KT 26/M01 A3019 RMK A01 T02591009  RH  017%=      5-min Rain = 0
KVA1 312303Z 02005KT 26/M01 A3019 RMK A01 T02581009  RH  017%=      5-min Rain = 0
KVA1 312304Z 02007KT 26/M01 A3019 RMK A01 T02581009  RH  017%=      5-min Rain = 0
KVA1 312305Z 03007KT 26/M01 A3019 RMK A01 T02581009  RH  017%=      5-min Rain = 0
KVA1 312306Z 03007KT 26/M01 A302 RMK A01 T02571009  RH  017%=      5-min Rain = 0
KVA1 312307Z 02007KT 26/M01 A302 RMK A01 T02571008  RH  017%=      5-min Rain = 0
KVA1 312308Z 03008KT 26/M01 A302 RMK A01 T02561008  RH  018%=      5-min Rain = 0
KVA1 312309Z 03006KT 26/M01 A302 RMK A01 T02561009  RH  018%=      5-min Rain = 0
KVA1 312310Z 03006KT 26/M01 A302 RMK A01 T02551009  RH  018%=      5-min Rain = 0
KVA1 312311Z 03006KT 26/M01 A302 RMK A01 T02551009  RH  018%=      5-min Rain = 0
KVA1 312312Z 03005KT 26/M01 A302 RMK A01 T02551008  RH  018%=      5-min Rain = 0
KVA1 312313Z 03004KT 26/M01 A302 RMK A01 T02551008  RH  018%=      5-min Rain = 0
KVA1 312314Z 04003KT 26/M01 A302 RMK A01 T02551008  RH  018%=      5-min Rain = 0
KVA1 312315Z 03004KT 26/M01 A302 RMK A01 T02551008  RH  018%=      5-min Rain = 0
KVA1 312316Z 03004KT 26/M01 A302 RMK A01 T02551008  RH  018%=      5-min Rain = 0
KVA1 312317Z 03005KT 26/M01 A302 RMK A01 T02551008  RH  018%=      5-min Rain = 0
KVA1 312318Z 03005KT 25/M01 A302 RMK A01 T02541008  RH  018%=      5-min Rain = 0
KVA1 312319Z 03005KT 25/M01 A302 RMK A01 T02541008  RH  018%=      5-min Rain = 0
KVA1 312320Z 03004KT 25/M01 A302 RMK A01 T02541009  RH  018%=      5-min Rain = 0
KVA1 312321Z 03005KT 25/M01 A302 RMK A01 T02541009  RH  018%=      5-min Rain = 0
KVA1 312322Z 02005KT 25/M01 A302 RMK A01 T02541008  RH  018%=      5-min Rain = 0
KVA1 312323Z 03005KT 25/M01 A302 RMK A01 T02541008  RH  018%=      5-min Rain = 0
KVA1 312324Z 04005KT 25/M01 A302 RMK A01 T02531008  RH  018%=      5-min Rain = 0
KVA1 312325Z 03004KT 25/M01 A302 RMK A01 T02531008  RH  018%=      5-min Rain = 0
KVA1 312326Z 03005KT 25/M01 A302 RMK A01 T02531008  RH  018%=      5-min Rain = 0
KVA1 312327Z 03006KT 25/M01 A302 RMK A01 T02521008  RH  018%=      5-min Rain = 0
KVA1 312328Z 03007KT 25/M01 A302 RMK A01 T02521007  RH  018%=      5-min Rain = 0
KVA1 312329Z 03007KT 25/M01 A302 RMK A01 T02521007  RH  018%=      5-min Rain = 0
KVA1 312330Z 03009KT 25/M01 A302 RMK A01 T02511006  RH  018%=      5-min Rain = 0
KVA1 312331Z 02009KT 25/M01 A302 RMK A01 T02511005  RH  019%=      5-min Rain = 0
KVA1 312332Z 03007KT 25/M01 A302 RMK A01 T02491005  RH  019%=      5-min Rain = 0
KVA1 312333Z 03007KT 25/M01 A302 RMK A01 T02491005  RH  019%=      5-min Rain = 0
KVA1 312334Z 02007KT 25/M01 A302 RMK A01 T02471005  RH  019%=      5-min Rain = 0
KVA1 312335Z 03007KT 25/M01 A302 RMK A01 T02471005  RH  019%=      5-min Rain = 0
KVA1 312336Z 03006KT 25/M01 A302 RMK A01 T02471005  RH  019%=      5-min Rain = 0
KVA1 312337Z 03006KT 25/M01 A302 RMK A01 T02461005  RH  019%=      5-min Rain = 0
KVA1 312338Z 02006KT 25/M01 A302 RMK A01 T02461006  RH  019%=      5-min Rain = 0
KVA1 312339Z 02007KT 25/M01 A302 RMK A01 T02451006  RH  019%=      5-min Rain = 0
KVA1 312340Z 02007KT 25/M01 A3021 RMK A01 T02451006  RH  019%=      5-min Rain = 0
KVA1 312341Z 02006KT 25/M01 A3021 RMK A01 T02451007  RH  019%=      5-min Rain = 0
KVA1 312342Z 02005KT 24/M01 A3021 RMK A01 T02441008  RH  019%=      5-min Rain = 0
KVA1 312343Z 02005KT 24/M01 A3021 RMK A01 T02441008  RH  019%=      5-min Rain = 0
KVA1 312344Z 01006KT 24/M01 A3021 RMK A01 T02441007  RH  019%=      5-min Rain = 0
KVA1 312345Z 02005KT 24/M01 A3021 RMK A01 T02431009  RH  019%=      5-min Rain = 0
KVA1 312346Z 02006KT 24/M01 A3021 RMK A01 T02421010  RH  019%=      5-min Rain = 0
KVA1 312347Z 02006KT 24/M01 A3021 RMK A01 T02421010  RH  019%=      5-min Rain = 0
KVA1 312348Z 02007KT 24/M01 A3021 RMK A01 T02421011  RH  019%=      5-min Rain = 0
KVA1 312349Z 02008KT 24/M01 A3021 RMK A01 T02411010  RH  019%=      5-min Rain = 0
KVA1 312350Z 02006KT 24/M01 A3021 RMK A01 T02411010  RH  019%=      5-min Rain = 0
KVA1 312351Z 02006KT 24/M01 A3021 RMK A01 T02401009  RH  019%=      5-min Rain = 0
KVA1 312352Z 02005KT 24/M01 A3021 RMK A01 T02401009  RH  019%=      5-min Rain = 0
KVA1 312353Z 02006KT 24/M01 A3021 RMK A01 T02391008  RH  019%=      5-min Rain = 0
KVA1 312354Z 02006KT 24/M01 A3021 RMK A01 T02391008  RH  019%=      5-min Rain = 0
KVA1 312355Z 01005KT 24/M01 A3021 RMK A01 T02381008  RH  020%=      5-min Rain = 0
KVA1 312356Z 01006KT 24/M01 A3021 RMK A01 T02381008  RH  020%=      5-min Rain = 0
KVA1 312357Z 01005KT 24/M01 A3021 RMK A01 T02371008  RH  020%=      5-min Rain = 0
KVA1 312358Z 01006KT 24/M01 A3021 RMK A01 T02361008  RH  020%=      5-min Rain = 0
KVA1 312359Z 01005KT 24/M01 A3021 RMK A01 T02361008  RH  020%=      5-min Rain = 0
KVA1 010000Z 01005KT 24/M01 A3021 RMK A01 T02351008  RH  020%=      5-min Rain = 0
KVA1 010001Z 02006KT 23/M01 A3021 RMK A01 T02341008  RH  020%=      5-min Rain = 0
KVA1 010002Z 02004KT 23/M01 A3021 RMK A01 T02341007  RH  020%=      5-min Rain = 0
KVA1 010003Z 02004KT 23/M01 A3021 RMK A01 T02331008  RH  020%=      5-min Rain = 0
KVA1 010004Z 02004KT 23/M01 A3021 RMK A01 T02331007  RH  020%=      5-min Rain = 0
KVA1 010005Z 02004KT 23/M01 A3021 RMK A01 T02321007  RH  020%=      5-min Rain = 0
KVA1 010006Z 01004KT 23/M01 A3021 RMK A01 T02321007  RH  020%=      5-min Rain = 0
KVA1 010007Z 01004KT 23/M01 A3021 RMK A01 T02311007  RH  020%=      5-min Rain = 0
KVA1 010008Z 01004KT 23/M01 A3021 RMK A01 T02301008  RH  021%=      5-min Rain = 0
KVA1 010009Z 00004KT 23/M01 A3021 RMK A01 T02291008  RH  021%=      5-min Rain = 0
KVA1 010010Z 01004KT 23/M01 A3021 RMK A01 T02291008  RH  021%=      5-min Rain = 0
KVA1 010011Z 01003KT 23/M01 A3021 RMK A01 T02281008  RH  021%=      5-min Rain = 0
KVA1 010012Z 01003KT 23/M01 A3021 RMK A01 T02271008  RH  021%=      5-min Rain = 0
KVA1 010013Z 01004KT 23/M01 A3021 RMK A01 T02261008  RH  021%=      5-min Rain = 0
KVA1 010014Z 01004KT 23/M01 A3021 RMK A01 T02251008  RH  021%=      5-min Rain = 0
KVA1 010015Z 00004KT 23/M01 A3021 RMK A01 T02251008  RH  021%=      5-min Rain = 0
KVA1 010016Z 36004KT 22/M01 A3022 RMK A01 T02241009  RH  021%=      5-min Rain = 0
KVA1 010017Z 35004KT 22/M01 A3022 RMK A01 T02231008  RH  021%=      5-min Rain = 0
KVA1 010018Z 35004KT 22/M01 A3022 RMK A01 T02231009  RH  021%=      5-min Rain = 0
KVA1 010019Z 34004KT 22/M01 A3022 RMK A01 T02211009  RH  021%=      5-min Rain = 0
KVA1 010020Z 34004KT 22/M01 A3022 RMK A01 T02201010  RH  022%=      5-min Rain = 0
KVA1 010021Z 34004KT 22/M01 A3022 RMK A01 T02181010  RH  022%=      5-min Rain = 0
KVA1 010022Z 34003KT 22/M01 A3022 RMK A01 T02171011  RH  022%=      5-min Rain = 0
KVA1 010023Z 34003KT 22/M01 A3022 RMK A01 T02151011  RH  022%=      5-min Rain = 0
KVA1 010024Z 33002KT 21/M01 A3022 RMK A01 T02141011  RH  022%=      5-min Rain = 0
KVA1 010025Z 31002KT 21/M01 A3022 RMK A01 T02131012  RH  022%=      5-min Rain = 0
KVA1 010026Z 30002KT 21/M01 A3022 RMK A01 T02131012  RH  022%=      5-min Rain = 0
KVA1 010027Z 30002KT 21/M01 A3022 RMK A01 T02111013  RH  022%=      5-min Rain = 0
KVA1 010028Z 29002KT 21/M01 A3022 RMK A01 T02101014  RH  022%=      5-min Rain = 0
KVA1 010029Z 28002KT 21/M01 A3022 RMK A01 T02081014  RH  022%=      5-min Rain = 0
KVA1 010030Z 28002KT 21/M01 A3022 RMK A01 T02071014  RH  023%=      5-min Rain = 0
KVA1 010031Z 28002KT 21/M02 A3022 RMK A01 T02061015  RH  023%=      5-min Rain = 0
KVA1 010032Z 27002KT 20/M02 A3022 RMK A01 T02041015  RH  023%=      5-min Rain = 0
KVA1 010033Z 28003KT 20/M02 A3022 RMK A01 T02031016  RH  023%=      5-min Rain = 0
KVA1 010034Z 28002KT 20/M02 A3022 RMK A01 T02021017  RH  023%=      5-min Rain = 0
KVA1 010035Z 29002KT 20/M02 A3022 RMK A01 T02011017  RH  023%=      5-min Rain = 0
KVA1 010036Z 29003KT 20/M02 A3022 RMK A01 T01991018  RH  023%=      5-min Rain = 0
KVA1 010037Z 29003KT 20/M02 A3022 RMK A01 T01981018  RH  023%=      5-min Rain = 0
KVA1 010038Z 29003KT 20/M02 A3022 RMK A01 T01961018  RH  023%=      5-min Rain = 0
KVA1 010039Z 29003KT 20/M02 A3022 RMK A01 T01951018  RH  024%=      5-min Rain = 0
KVA1 010040Z 29004KT 19/M02 A3022 RMK A01 T01941018  RH  024%=      5-min Rain = 0
KVA1 010041Z 29003KT 19/M02 A3022 RMK A01 T01931018  RH  024%=      5-min Rain = 0
KVA1 010042Z 29003KT 19/M02 A3022 RMK A01 T01931018  RH  024%=      5-min Rain = 0
KVA1 010043Z 29004KT 19/M02 A3022 RMK A01 T01931018  RH  024%=      5-min Rain = 0
KVA1 010044Z 28003KT 19/M02 A3022 RMK A01 T01911020  RH  024%=      5-min Rain = 0
KVA1 010045Z 28003KT 19/M02 A3022 RMK A01 T01901021  RH  024%=      5-min Rain = 0
KVA1 010046Z 29003KT 19/M02 A3022 RMK A01 T01901021  RH  024%=      5-min Rain = 0
KVA1 010047Z 29003KT 19/M02 A3022 RMK A01 T01891021  RH  024%=      5-min Rain = 0
KVA1 010048Z 29003KT 19/M02 A3022 RMK A01 T01881020  RH  024%=      5-min Rain = 0
KVA1 010049Z 29002KT 19/M02 A3022 RMK A01 T01881020  RH  024%=      5-min Rain = 0
KVA1 010050Z 29002KT 19/M02 A3023 RMK A01 T01871020  RH  024%=      5-min Rain = 0
KVA1 010051Z 29002KT 19/M02 A3023 RMK A01 T01871019  RH  025%=      5-min Rain = 0
KVA1 010052Z 30002KT 19/M02 A3023 RMK A01 T01871019  RH  025%=      5-min Rain = 0
KVA1 010053Z 30001KT 19/M02 A3023 RMK A01 T01871018  RH  025%=      5-min Rain = 0
KVA1 010054Z 31001KT 19/M02 A3023 RMK A01 T01881019  RH  025%=      5-min Rain = 0
KVA1 010055Z 31002KT 19/M02 A3023 RMK A01 T01881020  RH  024%=      5-min Rain = 0
KVA1 010056Z 29002KT 19/M02 A3023 RMK A01 T01881021  RH  024%=      5-min Rain = 0
KVA1 010057Z 28003KT 19/M02 A3023 RMK A01 T01871024  RH  024%=      5-min Rain = 0
KVA1 010058Z 29004KT 19/M02 A3023 RMK A01 T01851022  RH  024%=      5-min Rain = 0
KVA1 010059Z 29003KT 18/M02 A3023 RMK A01 T01831024  RH  024%=      5-min Rain = 0
KVA1 010100Z 29003KT 18/M03 A3023 RMK A01 T01821027  RH  024%=      5-min Rain = 0
KVA1 010101Z 20002KT 18/M03 A3023 RMK A01 T01811025  RH  024%=      5-min Rain = 0
KVA1 010102Z 15004KT 18/M02 A3023 RMK A01 T01801023  RH  025%=      5-min Rain = 0
KVA1 010103Z 16001KT 18/M02 A3023 RMK A01 T01811020  RH  025%=      5-min Rain = 0
KVA1 010104Z 15002KT 19/M02 A3023 RMK A01 T01851017  RH  025%=      5-min Rain = 0
KVA1 010105Z 14003KT 19/M02 A3023 RMK A01 T01881017  RH  025%=      5-min Rain = 0
KVA1 010106Z 14003KT 19/M02 A3023 RMK A01 T01901018  RH  025%=      5-min Rain = 0
KVA1 010107Z 15002KT 19/M02 A3023 RMK A01 T01911017  RH  024%=      5-min Rain = 0
KVA1 010108Z 15002KT 19/M02 A3023 RMK A01 T01921017  RH  024%=      5-min Rain = 0
KVA1 010109Z 15002KT 19/M02 A3023 RMK A01 T01921017  RH  024%=      5-min Rain = 0
KVA1 010110Z 16002KT 19/M02 A3023 RMK A01 T01921019  RH  024%=      5-min Rain = 0
KVA1 010111Z 17002KT 19/M02 A3023 RMK A01 T01891022  RH  024%=      5-min Rain = 0
KVA1 010112Z 18003KT 19/M02 A3023 RMK A01 T01861022  RH  024%=      5-min Rain = 0
KVA1 010113Z 18003KT 19/M02 A3023 RMK A01 T01851022  RH  024%=      5-min Rain = 0
KVA1 010114Z 19003KT 18/M02 A3023 RMK A01 T01841021  RH  025%=      5-min Rain = 0
KVA1 010115Z 19003KT 19/M02 A3023 RMK A01 T01861018  RH  025%=      5-min Rain = 0
KVA1 010116Z 19003KT 19/M02 A3023 RMK A01 T01881017  RH  025%=      5-min Rain = 0
KVA1 010117Z 19003KT 19/M02 A3023 RMK A01 T01901016  RH  025%=      5-min Rain = 0
KVA1 010118Z 20003KT 19/M02 A3024 RMK A01 T01921016  RH  024%=      5-min Rain = 0
KVA1 010119Z 21003KT 19/M02 A3024 RMK A01 T01931017  RH  024%=      5-min Rain = 0
KVA1 010120Z 21003KT 19/M02 A3024 RMK A01 T01921018  RH  024%=      5-min Rain = 0
KVA1 010121Z 21003KT 19/M02 A3024 RMK A01 T01901020  RH  024%=      5-min Rain = 0
KVA1 010122Z 21003KT 19/M02 A3024 RMK A01 T01881021  RH  024%=      5-min Rain = 0
KVA1 010123Z 21003KT 19/M02 A3024 RMK A01 T01851023  RH  024%=      5-min Rain = 0
KVA1 010124Z 23004KT 18/M02 A3024 RMK A01 T01821024  RH  024%=      5-min Rain = 0
KVA1 010125Z 24005KT 18/M03 A3024 RMK A01 T01791025  RH  025%=      5-min Rain = 0
KVA1 010126Z 23004KT 18/M03 A3024 RMK A01 T01771025  RH  025%=      5-min Rain = 0
KVA1 010127Z 24004KT 18/M03 A3024 RMK A01 T01751026  RH  025%=      5-min Rain = 0
KVA1 010128Z 23003KT 17/M03 A3024 RMK A01 T01741026  RH  026%=      5-min Rain = 0
KVA1 010129Z 23003KT 17/M03 A3024 RMK A01 T01731025  RH  026%=      5-min Rain = 0
KVA1 010130Z 22002KT 17/M02 A3024 RMK A01 T01731023  RH  026%=      5-min Rain = 0
KVA1 010131Z 22002KT 17/M02 A3025 RMK A01 T01721024  RH  026%=      5-min Rain = 0
KVA1 010132Z 21002KT 17/M02 A3025 RMK A01 T01731023  RH  026%=      5-min Rain = 0
KVA1 010133Z 22002KT 18/M02 A3025 RMK A01 T01751020  RH  026%=      5-min Rain = 0
KVA1 010134Z 24003KT 18/M02 A3025 RMK A01 T01771021  RH  026%=      5-min Rain = 0
KVA1 010135Z 25003KT 18/M02 A3025 RMK A01 T01761024  RH  026%=      5-min Rain = 0
KVA1 010136Z 26003KT 17/M02 A3025 RMK A01 T01731024  RH  026%=      5-min Rain = 0
KVA1 010137Z 25003KT 17/M02 A3025 RMK A01 T01731022  RH  026%=      5-min Rain = 0
KVA1 010138Z 25002KT 17/M02 A3025 RMK A01 T01741020  RH  027%=      5-min Rain = 0
KVA1 010139Z 25002KT 18/M02 A3025 RMK A01 T01761018  RH  027%=      5-min Rain = 0
KVA1 010140Z 25002KT 18/M02 A3025 RMK A01 T01781017  RH  026%=      5-min Rain = 0
KVA1 010141Z 25002KT 18/M02 A3025 RMK A01 T01801017  RH  026%=      5-min Rain = 0
KVA1 010142Z 25002KT 18/M02 A3025 RMK A01 T01801018  RH  026%=      5-min Rain = 0
KVA1 010143Z 26002KT 18/M02 A3025 RMK A01 T01801018  RH  026%=      5-min Rain = 0
KVA1 010144Z 27002KT 18/M02 A3025 RMK A01 T01801021  RH  026%=      5-min Rain = 0
KVA1 010145Z 26002KT 18/M02 A3025 RMK A01 T01771023  RH  025%=      5-min Rain = 0
KVA1 010146Z 26002KT 17/M03 A3025 RMK A01 T01741025  RH  026%=      5-min Rain = 0
KVA1 010147Z 27002KT 17/M03 A3025 RMK A01 T01711026  RH  026%=      5-min Rain = 0
KVA1 010148Z 27002KT 17/M03 A3025 RMK A01 T01691026  RH  026%=      5-min Rain = 0
KVA1 010149Z 27002KT 17/M03 A3025 RMK A01 T01681025  RH  027%=      5-min Rain = 0
KVA1 010150Z 28003KT 17/M03 A3026 RMK A01 T01661026  RH  027%=      5-min Rain = 0
KVA1 010151Z 29005KT 17/M03 A3026 RMK A01 T01651026  RH  027%=      5-min Rain = 0
KVA1 010152Z 29006KT 16/M03 A3026 RMK A01 T01641025  RH  027%=      5-min Rain = 0
KVA1 010153Z 28005KT 16/M02 A3026 RMK A01 T01641024  RH  028%=      5-min Rain = 0
KVA1 010154Z 28005KT 16/M02 A3026 RMK A01 T01641024  RH  028%=      5-min Rain = 0
KVA1 010155Z 28005KT 16/M02 A3026 RMK A01 T01641024  RH  028%=      5-min Rain = 0
KVA1 010156Z 28005KT 16/M02 A3026 RMK A01 T01641024  RH  027%=      5-min Rain = 0
KVA1 010157Z 28004KT 16/M02 A3026 RMK A01 T01641024  RH  027%=      5-min Rain = 0
KVA1 010158Z 27003KT 16/M02 A3026 RMK A01 T01641024  RH  027%=      5-min Rain = 0
KVA1 010159Z 27003KT 16/M03 A3026 RMK A01 T01631026  RH  027%=      5-min Rain = 0
KVA1 010200Z 27003KT 16/M03 A3026 RMK A01 T01631026  RH  027%=      5-min Rain = 0
KVA1 010201Z 26003KT 16/M03 A3026 RMK A01 T01631026  RH  027%=      5-min Rain = 0
KVA1 010202Z 26003KT 16/M03 A3026 RMK A01 T01631026  RH  027%=      5-min Rain = 0
KVA1 010203Z 26003KT 16/M03 A3026 RMK A01 T01631025  RH  027%=      5-min Rain = 0
KVA1 010204Z 26004KT 16/M03 A3026 RMK A01 T01631025  RH  028%=      5-min Rain = 0
KVA1 010205Z 26004KT 16/M03 A3026 RMK A01 T01631025  RH  027%=      5-min Rain = 0
KVA1 010206Z 26004KT 16/M03 A3026 RMK A01 T01611027  RH  027%=      5-min Rain = 0
KVA1 010207Z 26004KT 16/M03 A3026 RMK A01 T01611026  RH  028%=      5-min Rain = 0
KVA1 010208Z 26005KT 16/M03 A3026 RMK A01 T01621025  RH  028%=      5-min Rain = 0
KVA1 010209Z 27005KT 16/M02 A3026 RMK A01 T01631024  RH  028%=      5-min Rain = 0
KVA1 010210Z 27005KT 17/M02 A3026 RMK A01 T01661023  RH  027%=      5-min Rain = 0
KVA1 010211Z 26005KT 17/M02 A3026 RMK A01 T01691022  RH  027%=      5-min Rain = 0
KVA1 010212Z 26006KT 17/M02 A3026 RMK A01 T01721023  RH  026%=      5-min Rain = 0
KVA1 010213Z 25006KT 17/M02 A3026 RMK A01 T01721024  RH  026%=      5-min Rain = 0
KVA1 010214Z 25005KT 17/M03 A3026 RMK A01 T01731025  RH  026%=      5-min Rain = 0
KVA1 010215Z 24005KT 17/M03 A3026 RMK A01 T01721026  RH  026%=      5-min Rain = 0
KVA1 010216Z 24005KT 17/M03 A3026 RMK A01 T01711026  RH  026%=      5-min Rain = 0
KVA1 010217Z 24005KT 17/M03 A3026 RMK A01 T01711027  RH  026%=      5-min Rain = 0
KVA1 010218Z 25005KT 17/M03 A3026 RMK A01 T01701027  RH  026%=      5-min Rain = 0
KVA1 010219Z 25005KT 17/M03 A3026 RMK A01 T01701028  RH  026%=      5-min Rain = 0
KVA1 010220Z 24005KT 17/M03 A3026 RMK A01 T01701028  RH  026%=      5-min Rain = 0
KVA1 010221Z 25005KT 17/M03 A3026 RMK A01 T01701028  RH  026%=      5-min Rain = 0
KVA1 010222Z 25005KT 17/M03 A3026 RMK A01 T01701028  RH  026%=      5-min Rain = 0
KVA1 010223Z 25005KT 17/M03 A3026 RMK A01 T01711028  RH  025%=      5-min Rain = 0
KVA1 010224Z 25006KT 17/M03 A3026 RMK A01 T01711029  RH  025%=      5-min Rain = 0
KVA1 010225Z 25006KT 17/M03 A3026 RMK A01 T01721029  RH  025%=      5-min Rain = 0
KVA1 010226Z 25006KT 17/M03 A3026 RMK A01 T01721030  RH  025%=      5-min Rain = 0
KVA1 010227Z 25006KT 17/M03 A3026 RMK A01 T01721030  RH  025%=      5-min Rain = 0
KVA1 010228Z 25006KT 17/M03 A3026 RMK A01 T01711030  RH  025%=      5-min Rain = 0
KVA1 010229Z 25006KT 17/M03 A3026 RMK A01 T01711031  RH  025%=      5-min Rain = 0
KVA1 010230Z 26005KT 17/M03 A3026 RMK A01 T01701031  RH  025%=      5-min Rain = 0
KVA1 010231Z 26005KT 17/M03 A3026 RMK A01 T01701032  RH  025%=      5-min Rain = 0
KVA1 010232Z 26005KT 17/M03 A3026 RMK A01 T01691032  RH  025%=      5-min Rain = 0
KVA1 010233Z 26006KT 17/M03 A3026 RMK A01 T01691032  RH  025%=      5-min Rain = 0
KVA1 010234Z 26006KT 17/M03 A3026 RMK A01 T01691032  RH  025%=      5-min Rain = 0
KVA1 010235Z 26006KT 17/M03 A3026 RMK A01 T01691032  RH  025%=      5-min Rain = 0
KVA1 010236Z 27005KT 17/M03 A3026 RMK A01 T01691033  RH  025%=      5-min Rain = 0
KVA1 010237Z 27005KT 17/M03 A3026 RMK A01 T01681033  RH  025%=      5-min Rain = 0
KVA1 010238Z 27004KT 17/M03 A3026 RMK A01 T01681034  RH  025%=      5-min Rain = 0
KVA1 010239Z 27004KT 17/M03 A3026 RMK A01 T01671034  RH  025%=      5-min Rain = 0
KVA1 010240Z 27004KT 17/M03 A3026 RMK A01 T01661034  RH  025%=      5-min Rain = 0
KVA1 010241Z 27003KT 17/M03 A3027 RMK A01 T01661034  RH  025%=      5-min Rain = 0
KVA1 010242Z 26003KT 17/M03 A3027 RMK A01 T01661034  RH  025%=      5-min Rain = 0
KVA1 010243Z 25003KT 17/M03 A3027 RMK A01 T01661034  RH  025%=      5-min Rain = 0
KVA1 010244Z 24002KT 17/M03 A3027 RMK A01 T01661033  RH  025%=      5-min Rain = 0
KVA1 010245Z 21002KT 17/M03 A3027 RMK A01 T01651033  RH  025%=      5-min Rain = 0
KVA1 010246Z 20003KT 17/M03 A3027 RMK A01 T01651034  RH  026%=      5-min Rain = 0
KVA1 010247Z 20003KT 16/M03 A3027 RMK A01 T01641034  RH  026%=      5-min Rain = 0
KVA1 010248Z 21003KT 17/M03 A3027 RMK A01 T01671031  RH  026%=      5-min Rain = 0
KVA1 010249Z 23003KT 17/M03 A3027 RMK A01 T01721028  RH  025%=      5-min Rain = 0
KVA1 010250Z 23003KT 17/M03 A3027 RMK A01 T01741029  RH  025%=      5-min Rain = 0
KVA1 010251Z 24002KT 18/M03 A3027 RMK A01 T01761029  RH  024%=      5-min Rain = 0
KVA1 010252Z 23002KT 18/M03 A3027 RMK A01 T01771032  RH  024%=      5-min Rain = 0
KVA1 010253Z 24002KT 18/M03 A3027 RMK A01 T01781031  RH  024%=      5-min Rain = 0
KVA1 010254Z 24002KT 18/M03 A3027 RMK A01 T01771032  RH  024%=      5-min Rain = 0
KVA1 010255Z 17002KT 18/M03 A3027 RMK A01 T01761033  RH  024%=      5-min Rain = 0
KVA1 010256Z 16002KT 17/M03 A3027 RMK A01 T01731033  RH  024%=      5-min Rain = 0
KVA1 010257Z 15003KT 17/M03 A3027 RMK A01 T01731031  RH  025%=      5-min Rain = 0
KVA1 010258Z 15003KT 17/M03 A3027 RMK A01 T01731031  RH  025%=      5-min Rain = 0
KVA1 010259Z 17002KT 17/M03 A3027 RMK A01 T01711031  RH  025%=      5-min Rain = 0
KVA1 010300Z 18002KT 17/M03 A3027 RMK A01 T01691031  RH  025%=      5-min Rain = 0
KVA1 010301Z 19003KT 17/M03 A3027 RMK A01 T01681031  RH  025%=      5-min Rain = 0
KVA1 010302Z 21003KT 17/M03 A3027 RMK A01 T01681029  RH  026%=      5-min Rain = 0
KVA1 010303Z 22003KT 17/M03 A3027 RMK A01 T01691027  RH  026%=      5-min Rain = 0
KVA1 010304Z 22004KT 17/M03 A3028 RMK A01 T01701029  RH  025%=      5-min Rain = 0
KVA1 010305Z 22004KT 17/M03 A3028 RMK A01 T01701031  RH  025%=      5-min Rain = 0
KVA1 010306Z 22004KT 17/M03 A3028 RMK A01 T01711033  RH  025%=      5-min Rain = 0
KVA1 010307Z 23004KT 17/M03 A3028 RMK A01 T01711034  RH  025%=      5-min Rain = 0
KVA1 010308Z 25003KT 17/M04 A3028 RMK A01 T01691035  RH  025%=      5-min Rain = 0
KVA1 010309Z 24003KT 17/M04 A3028 RMK A01 T01681036  RH  025%=      5-min Rain = 0
KVA1 010310Z 24002KT 17/M04 A3028 RMK A01 T01671036  RH  025%=      5-min Rain = 0
KVA1 010311Z 25003KT 17/M04 A3028 RMK A01 T01661036  RH  025%=      5-min Rain = 0
KVA1 010312Z 24002KT 16/M04 A3028 RMK A01 T01641038  RH  025%=      5-min Rain = 0
KVA1 010313Z 23002KT 16/M04 A3028 RMK A01 T01621038  RH  025%=      5-min Rain = 0
KVA1 010314Z 22002KT 16/M04 A3028 RMK A01 T01611038  RH  025%=      5-min Rain = 0
KVA1 010315Z 22003KT 16/M04 A3028 RMK A01 T01601038  RH  026%=      5-min Rain = 0
KVA1 010316Z 23003KT 16/M04 A3028 RMK A01 T01581037  RH  026%=      5-min Rain = 0
KVA1 010317Z 23003KT 16/M04 A3028 RMK A01 T01571035  RH  026%=      5-min Rain = 0
KVA1 010318Z 23002KT 16/M03 A3028 RMK A01 T01591032  RH  027%=      5-min Rain = 0
KVA1 010319Z 23002KT 16/M03 A3028 RMK A01 T01621032  RH  026%=      5-min Rain = 0
KVA1 010320Z 22002KT 16/M03 A3028 RMK A01 T01631033  RH  026%=      5-min Rain = 0
KVA1 010321Z 23002KT 17/M03 A3028 RMK A01 T01651033  RH  026%=      5-min Rain = 0
KVA1 010322Z 23003KT 16/M04 A3028 RMK A01 T01641035  RH  025%=      5-min Rain = 0
KVA1 010323Z 23004KT 16/M04 A3028 RMK A01 T01611035  RH  026%=      5-min Rain = 0
KVA1 010324Z 24004KT 16/M03 A3028 RMK A01 T01601034  RH  026%=      5-min Rain = 0
KVA1 010325Z 24004KT 16/M03 A3029 RMK A01 T01601034  RH  026%=      5-min Rain = 0
KVA1 010326Z 25004KT 16/M04 A3029 RMK A01 T01581037  RH  026%=      5-min Rain = 0
KVA1 010327Z 25004KT 16/M04 A3029 RMK A01 T01571038  RH  026%=      5-min Rain = 0
KVA1 010328Z 25005KT 16/M04 A3029 RMK A01 T01581038  RH  026%=      5-min Rain = 0
KVA1 010329Z 25005KT 16/M04 A3029 RMK A01 T01591037  RH  026%=      5-min Rain = 0
KVA1 010330Z 25005KT 16/M04 A3029 RMK A01 T01601036  RH  026%=      5-min Rain = 0
KVA1 010331Z 24005KT 16/M03 A3029 RMK A01 T01621034  RH  026%=      5-min Rain = 0
KVA1 010332Z 24005KT 16/M04 A3029 RMK A01 T01621035  RH  026%=      5-min Rain = 0
KVA1 010333Z 24006KT 16/M03 A3029 RMK A01 T01621034  RH  026%=      5-min Rain = 0
KVA1 010334Z 25006KT 16/M03 A3029 RMK A01 T01611034  RH  026%=      5-min Rain = 0
KVA1 010335Z 25006KT 16/M03 A3029 RMK A01 T01611034  RH  026%=      5-min Rain = 0
KVA1 010336Z 25006KT 16/M03 A3029 RMK A01 T01621034  RH  026%=      5-min Rain = 0
KVA1 010337Z 25006KT 16/M03 A3029 RMK A01 T01621034  RH  026%=      5-min Rain = 0
KVA1 010338Z 25006KT 16/M04 A3029 RMK A01 T01611035  RH  026%=      5-min Rain = 0
KVA1 010339Z 25006KT 16/M04 A3029 RMK A01 T01611035  RH  026%=      5-min Rain = 0
KVA1 010340Z 25006KT 16/M03 A3029 RMK A01 T01611034  RH  026%=      5-min Rain = 0
KVA1 010341Z 25006KT 16/M04 A3029 RMK A01 T01621035  RH  026%=      5-min Rain = 0
KVA1 010342Z 25006KT 16/M04 A3029 RMK A01 T01611036  RH  026%=      5-min Rain = 0
KVA1 010343Z 26006KT 16/M04 A3029 RMK A01 T01611035  RH  026%=      5-min Rain = 0
KVA1 010344Z 26006KT 16/M04 A3029 RMK A01 T01611035  RH  026%=      5-min Rain = 0
KVA1 010345Z 26006KT 16/M04 A3029 RMK A01 T01611035  RH  026%=      5-min Rain = 0
KVA1 010346Z 26006KT 16/M04 A3029 RMK A01 T01601035  RH  026%=      5-min Rain = 0
KVA1 010347Z 26006KT 16/M04 A3029 RMK A01 T01601036  RH  026%=      5-min Rain = 0
KVA1 010348Z 26006KT 16/M04 A3029 RMK A01 T01601036  RH  026%=      5-min Rain = 0
KVA1 010349Z 25006KT 16/M04 A3029 RMK A01 T01591036  RH  026%=      5-min Rain = 0
KVA1 010350Z 25007KT 16/M04 A3029 RMK A01 T01591036  RH  026%=      5-min Rain = 0
KVA1 010351Z 25007KT 16/M04 A3029 RMK A01 T01581036  RH  026%=      5-min Rain = 0
KVA1 010352Z 25007KT 16/M04 A3029 RMK A01 T01581035  RH  026%=      5-min Rain = 0
KVA1 010353Z 25007KT 16/M04 A3029 RMK A01 T01571035  RH  026%=      5-min Rain = 0
KVA1 010354Z 25007KT 16/M04 A3029 RMK A01 T01571035  RH  027%=      5-min Rain = 0
KVA1 010355Z 25006KT 16/M04 A3029 RMK A01 T01571035  RH  027%=      5-min Rain = 0
KVA1 010356Z 26005KT 16/M03 A3029 RMK A01 T01571034  RH  027%=      5-min Rain = 0
KVA1 010357Z 27004KT 16/M03 A303 RMK A01 T01571034  RH  027%=      5-min Rain = 0
KVA1 010358Z 27004KT 16/M03 A303 RMK A01 T01571034  RH  027%=      5-min Rain = 0
KVA1 010359Z 27004KT 16/M04 A303 RMK A01 T01561035  RH  027%=      5-min Rain = 0
KVA1 010400Z 26005KT 16/M04 A303 RMK A01 T01561035  RH  027%=      5-min Rain = 0
KVA1 010401Z 27005KT 16/M04 A303 RMK A01 T01551035  RH  027%=      5-min Rain = 0
KVA1 010402Z 27006KT 15/M04 A303 RMK A01 T01541036  RH  027%=      5-min Rain = 0
KVA1 010403Z 26006KT 15/M04 A303 RMK A01 T01531036  RH  027%=      5-min Rain = 0
KVA1 010404Z 26006KT 15/M04 A303 RMK A01 T01531036  RH  027%=      5-min Rain = 0
KVA1 010405Z 27006KT 15/M04 A303 RMK A01 T01521037  RH  027%=      5-min Rain = 0
KVA1 010406Z 27005KT 15/M04 A303 RMK A01 T01521037  RH  027%=      5-min Rain = 0
KVA1 010407Z 27005KT 15/M04 A303 RMK A01 T01531037  RH  027%=      5-min Rain = 0
KVA1 010408Z 27005KT 15/M04 A303 RMK A01 T01531037  RH  027%=      5-min Rain = 0
KVA1 010409Z 27006KT 15/M04 A303 RMK A01 T01521037  RH  027%=      5-min Rain = 0
KVA1 010410Z 27006KT 15/M04 A303 RMK A01 T01511038  RH  027%=      5-min Rain = 0
KVA1 010411Z 28006KT 15/M04 A303 RMK A01 T01501038  RH  027%=      5-min Rain = 0
KVA1 010412Z 28005KT 15/M04 A303 RMK A01 T01501038  RH  027%=      5-min Rain = 0
KVA1 010413Z 28005KT 15/M04 A303 RMK A01 T01491039  RH  027%=      5-min Rain = 0
KVA1 010414Z 28005KT 15/M04 A303 RMK A01 T01481039  RH  027%=      5-min Rain = 0
KVA1 010415Z 29005KT 15/M04 A303 RMK A01 T01481039  RH  027%=      5-min Rain = 0
KVA1 010416Z 29004KT 15/M04 A303 RMK A01 T01481040  RH  027%=      5-min Rain = 0
KVA1 010417Z 30003KT 15/M04 A303 RMK A01 T01471041  RH  027%=      5-min Rain = 0
KVA1 010418Z 33003KT 15/M04 A3031 RMK A01 T01461041  RH  027%=      5-min Rain = 0
KVA1 010419Z 33003KT 15/M04 A3031 RMK A01 T01461041  RH  027%=      5-min Rain = 0
KVA1 010420Z 33003KT 15/M04 A3031 RMK A01 T01451042  RH  027%=      5-min Rain = 0
KVA1 010421Z 34004KT 15/M04 A3031 RMK A01 T01451042  RH  027%=      5-min Rain = 0
KVA1 010422Z 33003KT 14/M04 A3031 RMK A01 T01441043  RH  027%=      5-min Rain = 0
KVA1 010423Z 33003KT 14/M04 A3031 RMK A01 T01431043  RH  027%=      5-min Rain = 0
KVA1 010424Z 34004KT 14/M04 A3031 RMK A01 T01421044  RH  027%=      5-min Rain = 0
KVA1 010425Z 35004KT 14/M04 A3031 RMK A01 T01411044  RH  027%=      5-min Rain = 0
KVA1 010426Z 00004KT 14/M05 A3031 RMK A01 T01401045  RH  028%=      5-min Rain = 0
KVA1 010427Z 01005KT 14/M05 A3031 RMK A01 T01381045  RH  028%=      5-min Rain = 0
KVA1 010428Z 02004KT 14/M05 A3031 RMK A01 T01371045  RH  028%=      5-min Rain = 0
KVA1 010429Z 02003KT 14/M05 A3031 RMK A01 T01371045  RH  028%=      5-min Rain = 0
KVA1 010430Z 02003KT 14/M04 A3031 RMK A01 T01361044  RH  028%=      5-min Rain = 0
KVA1 010431Z 02003KT 14/M04 A3031 RMK A01 T01351044  RH  028%=      5-min Rain = 0
KVA1 010432Z 03003KT 14/M04 A3031 RMK A01 T01361044  RH  029%=      5-min Rain = 0
KVA1 010433Z 03004KT 14/M04 A3031 RMK A01 T01351044  RH  029%=      5-min Rain = 0
KVA1 010434Z 02004KT 14/M04 A3031 RMK A01 T01351044  RH  028%=      5-min Rain = 0
KVA1 010435Z 02005KT 14/M04 A3031 RMK A01 T01361044  RH  028%=      5-min Rain = 0
KVA1 010436Z 02005KT 14/M05 A3031 RMK A01 T01361045  RH  028%=      5-min Rain = 0
KVA1 010437Z 02006KT 14/M05 A3031 RMK A01 T01361046  RH  028%=      5-min Rain = 0
KVA1 010438Z 02006KT 14/M05 A3031 RMK A01 T01351046  RH  028%=      5-min Rain = 0
KVA1 010439Z 02006KT 13/M05 A3032 RMK A01 T01341046  RH  028%=      5-min Rain = 0
KVA1 010440Z 02006KT 13/M05 A3032 RMK A01 T01341046  RH  028%=      5-min Rain = 0
KVA1 010441Z 02006KT 13/M05 A3032 RMK A01 T01341046  RH  028%=      5-min Rain = 0
KVA1 010442Z 01005KT 13/M05 A3032 RMK A01 T01341046  RH  028%=      5-min Rain = 0
KVA1 010443Z 01005KT 14/M05 A3032 RMK A01 T01351045  RH  028%=      5-min Rain = 0
KVA1 010444Z 01004KT 14/M05 A3032 RMK A01 T01351046  RH  028%=      5-min Rain = 0
KVA1 010445Z 01004KT 14/M05 A3032 RMK A01 T01351046  RH  028%=      5-min Rain = 0
KVA1 010446Z 01005KT 14/M05 A3032 RMK A01 T01361045  RH  028%=      5-min Rain = 0
KVA1 010447Z 02005KT 14/M05 A3032 RMK A01 T01361045  RH  028%=      5-min Rain = 0
KVA1 010448Z 01005KT 14/M05 A3032 RMK A01 T01371045  RH  028%=      5-min Rain = 0
KVA1 010449Z 01005KT 14/M05 A3032 RMK A01 T01371045  RH  028%=      5-min Rain = 0
KVA1 010450Z 01005KT 14/M05 A3032 RMK A01 T01361045  RH  028%=      5-min Rain = 0
KVA1 010451Z 01005KT 14/M05 A3032 RMK A01 T01361045  RH  028%=      5-min Rain = 0
KVA1 010452Z 01005KT 14/M05 A3032 RMK A01 T01351045  RH  028%=      5-min Rain = 0
KVA1 010453Z 01005KT 13/M05 A3032 RMK A01 T01341045  RH  028%=      5-min Rain = 0
KVA1 010454Z 02004KT 13/M05 A3032 RMK A01 T01331045  RH  029%=      5-min Rain = 0
KVA1 010455Z 02004KT 13/M05 A3032 RMK A01 T01331045  RH  029%=      5-min Rain = 0
KVA1 010456Z 01005KT 13/M05 A3032 RMK A01 T01331045  RH  029%=      5-min Rain = 0
KVA1 010457Z 01005KT 13/M05 A3032 RMK A01 T01321045  RH  029%=      5-min Rain = 0
KVA1 010458Z 01005KT 13/M05 A3032 RMK A01 T01321045  RH  029%=      5-min Rain = 0
KVA1 010459Z 01006KT 13/M05 A3032 RMK A01 T01311045  RH  029%=      5-min Rain = 0

Page generated in 0.1045 seconds.